FW6434 Weather Reports


time (UTC)temp
F
wind
direction
speed
knots
gust
knots
rain 1hr
in
rain 24hr
in
rain mn
in
humidity
%
barometer
mb
20260507175040 56 178 0.0 1.7 0.11 0.11 0.23 100 1011.8
20260507174950 57 152 0.0 6.1 0.04 0.04 0.15 99 1011.0
20260507174944 58 62 2.6 3.5 0.00 0.00 0.04 95 1010.7
20260507174940 56 166 0.0 2.6 0.11 0.11 0.22 100 1011.4
20260507174928 56 130 0.0 6.1 0.04 0.04 0.15 99 1011.0
20260507174919 56 123 0.9 2.6 0.10 0.10 0.21 100 1011.8
20260507174902 56 174 0.9 2.6 0.09 0.09 0.21 100 1011.8
20260507174846 56 194 0.0 2.6 0.08 0.08 0.20 100 1011.9
20260507174824 56 186 0.0 2.6 0.08 0.08 0.19 100 1011.9
20260507174809 56 118 0.0 2.6 0.07 0.07 0.18 100 1012.0
20260507174753 56 157 0.0 2.6 0.06 0.06 0.17 100 1011.9
20260507174518 56 156 0.0 2.6 0.05 0.05 0.16 100 1012.0
20260507174453 56 189 0.9 2.6 0.04 0.04 0.16 100 1011.8
20260507174436 56 44 0.9 2.6 0.04 0.04 0.15 100 1011.6
20260507174200 56 158 0.0 2.6 0.04 0.04 0.15 100 1011.7
20260507174144 56 183 0.0 2.6 0.04 0.04 0.15 100 1011.6
20260507174121 56 183 0.0 2.6 0.04 0.04 0.15 100 1011.7
20260507173845 56 149 0.0 2.6 0.04 0.04 0.15 100 1011.6
20260507173828 56 176 0.0 2.6 0.04 0.04 0.15 100 1011.7
20260507173812 56 157 0.0 3.5 0.04 0.04 0.15 100 1011.7
20260507173543 56 109 0.0 3.5 0.04 0.04 0.15 100 1011.6
20260507173528 56 145 0.0 3.5 0.04 0.04 0.15 100 1011.2
20260507173512 56 58 1.7 6.1 0.04 0.04 0.15 100 1011.2
20260507173457 56 123 0.0 6.1 0.04 0.04 0.15 100 1011.1
20260507173219 56 130 0.0 6.1 0.04 0.04 0.15 99 1011.0
20260507172301 56 119 0.0 6.1 0.04 0.04 0.15 99 1011.0
20260507172245 56 59 1.7 6.1 0.04 0.04 0.15 99 1011.0
20260507172220 56 91 0.9 6.1 0.04 0.04 0.15 99 1010.7
20260507172205 56 94 2.6 6.1 0.04 0.04 0.15 99 1011.0
20260507171929 56 113 0.0 3.5 0.04 0.04 0.15 99 1010.8
20260507171705 56 60 0.9 5.2 0.04 0.04 0.15 99 1010.8
20260507171643 56 162 0.9 5.2 0.04 0.04 0.15 99 1010.7
20260507171627 56 52 0.9 5.2 0.04 0.04 0.15 99 1010.9
20260507171611 56 109 0.0 5.2 0.04 0.04 0.15 99 1010.7
20260507171335 57 105 0.9 6.1 0.04 0.04 0.15 99 1010.8
20260507171316 57 152 0.0 6.1 0.04 0.04 0.15 99 1011.0
20260507171050 57 168 0.0 6.1 0.04 0.04 0.15 99 1011.0
20260507171035 57 108 0.0 6.1 0.04 0.04 0.15 98 1010.9
20260507170758 57 50 1.7 6.1 0.04 0.04 0.15 98 1010.9
20260507170736 57 90 0.0 6.1 0.04 0.04 0.15 98 1011.1
20260507170719 57 33 1.7 6.1 0.04 0.04 0.15 98 1010.8
20260507170703 57 44 1.7 6.1 0.03 0.03 0.15 98 1010.7
20260507170428 57 112 0.0 3.5 0.03 0.03 0.14 98 1011.0
20260507170200 58 37 2.6 3.5 0.03 0.03 0.14 98 1011.0
20260507170144 58 138 0.0 3.5 0.02 0.02 0.13 98 1010.8
20260507170129 58 146 0.0 3.5 0.02 0.02 0.13 97 1011.0
20260507170112 57 151 0.0 3.5 0.01 0.01 0.12 97 1011.0
20260507170056 57 132 0.0 3.5 0.00 0.00 0.12 97 1010.9
20260507165830 58 39 1.7 3.5 0.00 0.00 0.11 97 1011.0
20260507165814 58 46 1.7 3.5 0.00 0.00 0.11 97 1010.9
20260507165759 58 165 0.0 3.5 0.00 0.00 0.11 96 1010.7
20260507165743 58 76 1.7 3.5 0.00 0.00 0.11 96 1010.9
20260507164747 58 53 1.7 8.7 0.10 0.11 0.11 95 1010.7
20260507164648 59 149 0.0 8.7 0.09 0.10 0.10 94 1010.8
20260507164549 59 175 0.0 8.7 0.08 0.09 0.09 94 1010.5
20260507164530 59 70 0.9 8.7 0.08 0.09 0.09 93 1010.5
20260507164513 60 165 0.0 8.7 0.05 0.06 0.06 93 1010.9
20260507164453 60 24 0.9 7.8 0.05 0.06 0.06 93 1010.8
20260507164437 60 107 0.0 7.8 0.04 0.05 0.06 93 1010.7
20260507164208 60 176 0.9 7.8 0.03 0.04 0.05 92 1010.6
20260507163847 60 43 2.6 7.8 0.03 0.04 0.04 91 1010.5
20260507163747 60 136 0.9 7.8 0.03 0.04 0.04 90 1010.5
20260507163647 60 50 4.3 7.8 0.03 0.04 0.04 90 1010.4
20260507163547 61 41 4.3 7.0 0.02 0.03 0.03 89 1010.5
20260507163447 61 75 0.9 7.0 0.00 0.01 0.02 88 1010.6
20260507163347 61 14 2.6 7.0 0.00 0.01 0.01 88 1010.6
20260507163246 61 40 2.6 6.1 0.00 0.01 0.01 87 1010.5
20260507163231 61 103 0.9 6.1 0.00 0.01 0.01 87 1010.5
20260507163207 61 77 0.9 6.1 0.00 0.01 0.01 86 1010.5
20260507162848 61 94 1.7 6.1 0.00 0.01 0.01 86 1010.5
20260507162819 61 107 0.0 6.1 0.00 0.01 0.01 86 1010.2
20260507162802 61 70 0.9 6.1 0.00 0.01 0.01 85 1010.4
20260507162740 62 133 0.0 6.1 0.00 0.01 0.01 85 1010.5
20260507162724 62 55 1.7 6.1 0.00 0.01 0.01 85 1010.4
20260507162448 62 41 1.7 6.1 0.00 0.01 0.01 84 1010.4
20260507162431 62 77 0.9 6.1 0.00 0.01 0.01 84 1010.4
20260507162406 62 28 1.7 6.1 0.00 0.01 0.01 83 1010.2
20260507162349 63 89 0.0 5.2 0.00 0.01 0.01 82 1010.2
20260507161552 64 173 0.0 3.5 0.00 0.01 0.01 79 1010.1
20260507161448 64 156 1.7 3.5 0.00 0.01 0.01 77 1010.4
20260507161354 65 88 0.9 3.5 0.00 0.01 0.01 73 1010.4
20260507161349 64 130 0.0 3.5 0.00 0.01 0.01 76 1010.2
20260507161333 65 53 0.9 3.5 0.00 0.01 0.01 76 1010.1
20260507161317 65 16 0.9 3.5 0.00 0.01 0.01 75 1010.1
20260507161257 65 88 0.9 3.5 0.00 0.01 0.01 73 1010.4
20260507160948 66 146 0.9 3.5 0.00 0.01 0.01 73 1010.4
20260507160848 66 75 0.9 3.5 0.00 0.01 0.01 72 1010.1
20260507160747 66 154 0.0 1.7 0.00 0.01 0.01 71 1010.0
20260507160722 66 60 1.7 1.7 0.00 0.01 0.01 70 1010.1
20260507160659 67 106 0.0 1.7 0.00 0.01 0.01 69 1010.0
20260507160643 67 63 1.7 1.7 0.00 0.01 0.01 69 1010.0
20260507160628 67 171 0.0 1.7 0.00 0.01 0.01 68 1010.0
20260507160059 68 153 0.0 0.0 0.00 0.01 0.01 66 1010.0
20260507155946 68 189 0.0 0.0 0.00 0.01 0.01 65 1010.0
20260507155847 68 192 0.0 0.0 0.00 0.01 0.01 65 1009.9
20260507155825 68 190 0.0 0.9 0.00 0.01 0.01 65 1009.7
20260507155817 68 193 0.0 0.0 0.00 0.01 0.01 65 1009.8
20260507155801 68 193 0.0 0.0 0.00 0.01 0.01 64 1010.0
20260507155739 68 192 0.0 0.0 0.00 0.01 0.01 64 1010.1
20260507155723 68 192 0.0 0.0 0.00 0.01 0.01 64 1010.1
20260507155707 68 191 0.0 0.0 0.00 0.01 0.01 64 1009.9
20260507155652 68 190 0.0 0.0 0.00 0.01 0.01 64 1010.0
20260507155636 68 191 0.0 0.0 0.00 0.01 0.01 65 1009.8
20260507155144 68 191 0.0 1.7 0.00 0.01 0.01 65 1009.7
20260507154909 68 192 0.0 1.7 0.00 0.01 0.01 65 1009.8
20260507154547 68 195 0.0 1.7 0.00 0.01 0.01 65 1009.9
20260507154447 68 195 0.0 1.7 0.00 0.01 0.01 64 1009.8
20260507154433 68 189 0.0 2.6 0.00 0.01 0.01 64 1009.8
20260507154424 68 195 0.0 2.6 0.00 0.01 0.01 64 1010.0
20260507154407 68 195 0.0 2.6 0.00 0.01 0.01 64 1009.6
20260507154123 68 226 1.7 2.6 0.00 0.01 0.01 64 1009.9
20260507154107 68 195 0.0 2.6 0.00 0.01 0.01 64 1009.7
20260507154052 68 192 0.0 2.6 0.00 0.01 0.01 64 1009.8
20260507154036 68 202 0.0 2.6 0.00 0.01 0.01 64 1009.8
20260507153758 68 189 0.0 2.6 0.00 0.01 0.01 64 1009.8
20260507153447 69 212 0.9 2.6 0.00 0.01 0.01 63 1009.8
20260507153348 69 207 0.9 0.9 0.00 0.01 0.01 64 1009.9
20260507153250 69 207 0.0 0.9 0.00 0.01 0.01 63 1010.0
20260507153234 69 190 0.0 0.9 0.00 0.01 0.01 63 1009.8
20260507153209 69 190 0.0 0.9 0.00 0.01 0.01 63 1009.9
20260507152847 69 194 0.0 0.0 0.00 0.01 0.01 64 1009.9
20260507152747 69 193 0.0 0.0 0.00 0.01 0.01 64 1009.9
20260507152646 69 195 0.0 0.0 0.00 0.01 0.01 64 1009.9
20260507152622 69 190 0.0 0.0 0.00 0.01 0.01 64 1010.0
20260507152606 69 190 0.0 0.0 0.00 0.01 0.01 64 1010.0
20260507152247 69 190 0.0 0.0 0.00 0.01 0.01 64 1010.1
20260507152147 69 191 0.0 1.7 0.00 0.01 0.01 64 1009.8
20260507152049 69 187 0.0 1.7 0.00 0.01 0.01 64 1009.9
20260507151947 69 188 0.0 1.7 0.00 0.01 0.01 64 1010.0
20260507151852 69 188 0.0 1.7 0.00 0.01 0.01 64 1009.9
20260507151836 69 187 0.0 1.7 0.00 0.01 0.01 65 1010.1
20260507151819 69 186 0.0 1.7 0.00 0.01 0.01 64 1009.9
20260507151552 69 185 0.0 1.7 0.00 0.01 0.01 64 1009.9
20260507151448 69 179 0.0 1.7 0.00 0.01 0.01 63 1009.9
20260507151347 69 183 0.0 1.7 0.00 0.01 0.01 64 1009.9
20260507151247 69 192 0.0 1.7 0.00 0.01 0.01 64 1009.8
20260507151148 69 162 0.0 0.9 0.00 0.01 0.01 64 1009.9
20260507151046 69 189 0.0 0.0 0.00 0.01 0.01 63 1009.9
20260507150947 69 189 0.0 0.0 0.00 0.01 0.01 64 1009.6
20260507150846 69 189 0.0 0.0 0.00 0.01 0.01 63 1010.0
20260507150748 69 189 0.0 0.9 0.00 0.01 0.01 63 1009.9
20260507150653 69 189 0.0 0.9 0.00 0.01 0.01 63 1009.7
20260507150548 69 188 0.0 0.9 0.00 0.01 0.01 64 1009.7
20260507150448 69 187 0.0 0.9 0.00 0.01 0.01 63 1010.0
20260507150348 69 186 0.0 0.9 0.00 0.01 0.01 63 1009.9
20260507150247 69 182 0.0 0.9 0.00 0.01 0.01 63 1010.0
20260507150146 69 189 0.0 0.9 0.00 0.01 0.01 63 1009.9
20260507150100 69 177 0.0 1.7 0.00 0.01 0.01 63 1009.8
20260507145947 69 184 0.0 1.7 0.00 0.01 0.01 63 1009.9
20260507145847 69 185 0.0 1.7 0.00 0.01 0.01 63 1009.8
20260507145825 70 187 0.0 3.5 0.00 0.01 0.01 57 1009.7
20260507145817 69 183 0.0 1.7 0.00 0.01 0.01 63 1009.4
20260507145801 69 189 0.0 1.7 0.00 0.01 0.01 63 1009.8
20260507145739 69 183 0.0 1.7 0.00 0.01 0.01 62 1009.5
20260507145723 70 162 0.0 3.5 0.00 0.01 0.01 62 1009.9
20260507145446 70 192 0.0 3.5 0.00 0.01 0.01 60 1009.6
20260507145430 70 67 0.9 3.5 0.00 0.01 0.01 59 1009.4
20260507145406 70 204 0.0 3.5 0.00 0.01 0.01 58 1009.5
20260507145350 70 184 0.0 3.5 0.00 0.01 0.01 58 1009.7
20260507144852 70 189 0.0 3.5 0.00 0.01 0.01 57 1009.8
20260507144835 70 187 0.0 3.5 0.00 0.01 0.01 57 1009.7
20260507144608 70 202 0.0 3.5 0.00 0.01 0.01 56 1009.7
20260507144247 71 190 0.0 3.5 0.00 0.01 0.01 56 1009.6
20260507144147 71 241 0.0 7.8 0.00 0.01 0.01 56 1009.5
20260507144047 71 189 0.0 7.8 0.00 0.01 0.01 56 1009.6
20260507143947 71 181 1.7 7.8 0.00 0.01 0.01 56 1009.7
20260507143847 71 189 0.0 7.8 0.00 0.01 0.01 57 1009.5
20260507143829 71 188 0.0 7.8 0.00 0.01 0.01 56 1009.5
20260507143814 71 184 0.0 7.8 0.00 0.01 0.01 56 1009.5
20260507143746 71 187 0.0 7.8 0.00 0.01 0.01 56 1009.6
20260507143509 71 307 2.6 7.8 0.00 0.01 0.01 55 1009.5
20260507143453 71 203 3.5 7.8 0.00 0.01 0.01 55 1009.8
20260507143208 71 199 0.0 5.2 0.00 0.01 0.01 56 1009.4
20260507142846 71 181 0.9 2.6 0.00 0.01 0.01 56 1009.5
20260507142749 72 192 0.0 2.6 0.00 0.01 0.01 56 1009.6
20260507142647 72 150 0.0 3.5 0.00 0.01 0.01 56 1009.9
20260507142549 72 192 0.0 3.5 0.00 0.01 0.01 55 1009.6
20260507142447 72 198 0.0 3.5 0.00 0.01 0.01 55 1009.8
20260507142347 72 225 0.0 3.5 0.00 0.01 0.01 56 1009.5
20260507142247 72 186 0.0 3.5 0.00 0.01 0.01 57 1009.5
20260507142236 71 182 0.0 8.7 0.00 0.01 0.01 57 1009.8
20260507142226 71 192 0.0 3.5 0.00 0.01 0.01 57 1009.7
20260507142202 71 234 0.9 3.5 0.00 0.01 0.01 56 1009.5
20260507142146 71 187 0.0 3.5 0.00 0.01 0.01 56 1009.7
20260507142130 71 170 0.0 7.0 0.00 0.01 0.01 56 1009.7
20260507142115 71 208 2.6 7.0 0.00 0.01 0.01 56 1009.9
20260507141836 71 182 0.0 8.7 0.00 0.01 0.01 57 1009.8
20260507141609 71 76 0.0 8.7 0.00 0.01 0.01 56 1009.6
20260507141554 71 204 0.0 8.7 0.00 0.01 0.01 56 1009.7
20260507141538 71 157 0.0 8.7 0.00 0.01 0.01 56 1009.9
20260507141048 71 182 0.0 8.7 0.00 0.01 0.01 55 1009.7
20260507140947 71 253 1.7 8.7 0.00 0.01 0.01 55 1009.5
20260507140847 71 183 0.0 9.6 0.00 0.01 0.01 55 1009.6
20260507140747 71 258 0.9 9.6 0.00 0.01 0.01 55 1009.7
20260507140701 72 236 0.9 9.6 0.00 0.01 0.01 55 1009.6
20260507140638 72 183 0.0 9.6 0.00 0.01 0.01 55 1009.4
20260507140622 72 95 0.0 9.6 0.00 0.01 0.01 54 1009.7
20260507140346 72 184 0.0 9.6 0.00 0.01 0.01 55 1009.5
20260507140330 72 160 0.0 9.6 0.00 0.01 0.01 56 1009.5
20260507140100 72 188 0.0 11.3 0.00 0.01 0.01 55 1009.5
20260507135947 72 226 2.6 11.3 0.00 0.01 0.01 53 1009.4
20260507135925 72 202 3.5 11.3 0.00 0.01 0.01 54 1009.5
20260507135909 72 196 6.1 11.3 0.00 0.01 0.01 54 1009.5
20260507135547 72 167 0.0 11.3 0.00 0.01 0.01 53 1009.6
20260507135448 72 210 0.9 12.2 0.00 0.01 0.01 53 1009.8
20260507135347 72 186 0.0 12.2 0.00 0.01 0.01 54 1009.6
20260507135247 71 188 0.0 12.2 0.00 0.01 0.01 54 1009.6
20260507135227 71 345 4.3 12.2 0.00 0.01 0.01 53 1009.6
20260507135202 71 194 3.5 12.2 0.00 0.01 0.01 53 1009.5
20260507135145 71 153 0.0 12.2 0.00 0.01 0.01 53 1009.5
20260507134909 71 235 1.7 12.2 0.00 0.01 0.01 52 1009.8
20260507134623 72 248 7.8 12.2 0.00 0.01 0.01 51 1009.5
20260507134608 72 196 0.9 7.0 0.00 0.01 0.01 51 1009.9
20260507134248 72 245 2.6 7.0 0.00 0.01 0.01 50 1009.9
20260507134147 73 247 1.7 7.0 0.00 0.01 0.01 50 1009.8
20260507134047 73 220 0.9 6.1 0.00 0.01 0.01 51 1009.9
20260507133947 73 202 0.9 6.1 0.00 0.01 0.01 51 1009.9
20260507133922 73 209 0.0 6.1 0.00 0.01 0.01 51 1009.8
20260507133907 73 188 0.0 6.1 0.00 0.01 0.01 51 1009.8
20260507133623 73 186 0.0 3.5 0.00 0.01 0.01 51 1009.7
20260507133608 72 192 0.0 6.1 0.00 0.01 0.01 53 1009.6
20260507133247 72 230 0.0 6.1 0.00 0.01 0.01 50 1009.9
20260507133147 72 220 0.0 6.1 0.00 0.01 0.01 51 1010.0
20260507133049 72 195 0.0 6.1 0.00 0.01 0.01 52 1009.9
20260507132948 72 189 0.0 6.1 0.00 0.01 0.01 53 1010.0
20260507132847 72 189 0.0 6.1 0.00 0.01 0.01 53 1010.1
20260507132822 72 201 0.9 6.1 0.00 0.01 0.01 53 1010.0
20260507132806 72 196 0.0 6.1 0.00 0.01 0.01 53 1010.2
20260507132743 72 226 2.6 6.1 0.00 0.01 0.01 51 1010.0
20260507132508 72 196 0.0 3.5 0.00 0.01 0.01 57 1009.8
20260507132452 72 197 0.0 2.6 0.00 0.01 0.01 55 1010.0
20260507132436 72 186 0.9 2.6 0.00 0.01 0.01 56 1009.8
20260507132207 72 124 0.0 3.5 0.00 0.01 0.01 58 1009.8
20260507131847 72 194 0.0 3.5 0.00 0.01 0.01 65 1009.7
20260507131747 72 203 0.0 3.5 0.00 0.01 0.01 63 1010.1
20260507131647 72 182 0.9 3.5 0.00 0.01 0.01 64 1009.7
20260507131548 72 195 0.0 3.5 0.00 0.01 0.01 64 1009.8
20260507131447 71 195 0.0 3.5 0.00 0.01 0.01 63 1009.8
20260507131431 71 206 0.0 6.1 0.00 0.01 0.01 63 1010.0
20260507131422 71 191 0.0 3.5 0.00 0.01 0.01 63 1009.8
20260507131406 71 187 0.0 5.2 0.00 0.01 0.01 63 1010.1
20260507131351 71 225 0.9 5.2 0.00 0.01 0.01 63 1010.0
20260507131332 71 206 0.0 6.1 0.00 0.01 0.01 63 1010.0
20260507131106 71 184 0.9 6.1 0.00 0.01 0.01 64 1010.0
20260507130747 71 198 0.0 8.7 0.00 0.01 0.01 63 1009.9
20260507130721 71 237 0.0 13.9 0.00 0.01 0.01 63 1009.9
20260507130659 71 202 0.0 13.9 0.00 0.01 0.01 64 1009.8
20260507130644 71 186 0.0 13.9 0.00 0.01 0.01 64 1009.9
20260507130408 70 215 1.7 13.9 0.00 0.01 0.01 64 1009.8
20260507125947 70 105 0.9 13.9 0.00 0.01 0.01 64 1009.8
20260507125847 70 252 5.2 13.9 0.00 0.01 0.01 64 1009.9
20260507125805 70 194 0.0 9.6 0.00 0.01 0.01 63 1009.8
20260507125750 70 213 6.1 11.3 0.00 0.01 0.01 64 1009.9
20260507125733 69 192 0.0 11.3 0.00 0.01 0.01 67 1009.8
20260507125716 69 188 0.0 11.3 0.00 0.01 0.01 67 1009.8
20260507125659 69 198 0.0 11.3 0.00 0.01 0.01 66 1010.0
20260507125424 69 216 4.3 11.3 0.00 0.01 0.01 67 1009.9
20260507125400 69 200 0.9 11.3 0.00 0.01 0.01 67 1009.8
20260507125124 69 194 1.7 11.3 0.00 0.01 0.01 66 1009.9
20260507125108 69 171 0.9 11.3 0.00 0.01 0.01 67 1009.9
20260507125053 69 233 6.1 11.3 0.00 0.01 0.01 67 1010.0
20260507124826 69 253 4.3 7.8 0.00 0.01 0.01 67 1009.8
20260507124551 69 183 1.7 7.8 0.00 0.01 0.01 67 1010.0
20260507124315 68 203 0.9 7.8 0.00 0.01 0.01 68 1010.1
20260507124047 68 214 0.0 7.8 0.00 0.01 0.01 68 1010.0
20260507123946 68 220 4.3 7.8 0.00 0.01 0.01 67 1009.9
20260507123906 68 232 5.2 7.8 0.00 0.01 0.01 67 1009.9
20260507123850 68 204 1.7 7.8 0.00 0.01 0.01 67 1010.0
20260507123834 68 237 2.6 7.8 0.00 0.01 0.01 66 1010.0
20260507123812 69 215 1.7 5.2 0.00 0.01 0.01 67 1010.0
20260507123755 69 221 2.6 3.5 0.00 0.01 0.01 68 1010.0
20260507123519 69 202 0.9 1.7 0.00 0.01 0.01 69 1010.2
20260507123234 69 196 0.0 0.9 0.00 0.01 0.01 69 1010.0
20260507123218 69 201 0.0 0.9 0.00 0.01 0.01 69 1009.9
20260507122941 69 196 0.0 0.9 0.00 0.01 0.01 69 1010.2
20260507122925 69 199 0.0 0.9 0.00 0.01 0.01 68 1010.1
20260507122902 69 198 0.0 0.9 0.00 0.01 0.01 69 1010.2
20260507122627 69 210 0.0 0.0 0.00 0.01 0.01 69 1010.4
20260507122047 69 191 0.0 0.0 0.00 0.01 0.01 70 1010.1
20260507121947 69 191 0.0 0.0 0.00 0.01 0.01 70 1010.1
20260507121854 69 190 0.0 0.0 0.00 0.01 0.01 71 1010.2
20260507121838 69 191 0.0 0.0 0.00 0.01 0.01 70 1010.2
20260507121823 69 190 0.0 0.0 0.00 0.01 0.01 70 1010.2
20260507121800 69 186 0.0 0.0 0.00 0.01 0.01 71 1010.1
20260507121523 69 187 0.0 0.0 0.00 0.01 0.01 73 1010.4
20260507121508 69 188 0.0 0.9 0.00 0.01 0.01 72 1010.2
20260507121451 69 189 0.0 0.9 0.00 0.01 0.01 71 1010.2
20260507121222 68 192 0.0 0.9 0.00 0.01 0.01 72 1010.1
20260507120923 68 185 0.0 0.9 0.00 0.01 0.01 72 1010.1
20260507120907 67 185 0.0 0.9 0.00 0.01 0.01 70 1010.2
20260507120547 67 180 0.0 0.9 0.00 0.01 0.01 71 1010.1
20260507120448 67 186 0.0 0.9 0.00 0.01 0.01 71 1010.0
20260507120359 67 178 0.0 0.9 0.00 0.01 0.01 71 1010.4
20260507120343 67 151 0.0 0.0 0.00 0.01 0.01 71 1010.1
20260507120328 67 164 0.0 0.0 0.01 0.01 0.01 71 1010.1
20260507120100 68 155 0.0 0.0 0.01 0.01 0.01 72 1010.2
20260507115947 68 177 0.0 0.0 0.01 0.01 0.01 74 1010.4
20260507115847 68 181 0.0 0.0 0.01 0.01 0.01 75 1010.1
20260507115747 68 190 0.0 0.0 0.01 0.01 0.01 76 1010.5
20260507115648 68 190 0.0 0.0 0.01 0.01 0.01 75 1010.1
20260507115547 68 189 0.0 0.0 0.01 0.01 0.01 75 1010.2
20260507115448 68 189 0.0 0.0 0.01 0.01 0.01 74 1010.0
20260507115348 68 185 0.0 0.0 0.01 0.01 0.01 73 1010.4
20260507115247 68 192 0.0 0.0 0.01 0.01 0.01 74 1010.1
20260507115148 68 192 0.0 0.0 0.01 0.01 0.01 75 1010.4
20260507115048 68 189 0.0 0.0 0.01 0.01 0.01 77 1010.1
20260507114947 68 194 0.0 0.0 0.01 0.01 0.01 78 1010.5
20260507114847 67 197 0.0 0.0 0.01 0.01 0.01 79 1010.4
20260507114747 67 196 0.0 0.0 0.01 0.01 0.01 79 1010.2
20260507114648 67 187 0.0 0.0 0.01 0.01 0.01 79 1010.2
20260507114624 67 179 0.0 0.0 0.01 0.01 0.01 79 1010.0
20260507114609 67 184 0.0 0.0 0.01 0.01 0.01 80 1010.5
20260507114323 67 185 0.0 0.0 0.01 0.01 0.01 82 1010.2
20260507114307 67 186 0.0 0.0 0.01 0.01 0.01 83 1010.4
20260507114243 66 190 0.0 0.0 0.01 0.01 0.01 83 1010.5
20260507114007 66 185 0.0 0.0 0.01 0.01 0.01 83 1010.2
20260507113647 65 188 0.0 0.0 0.01 0.01 0.01 84 1010.5
20260507113548 65 191 0.0 0.0 0.01 0.01 0.01 85 1010.4
20260507113509 65 189 0.0 0.0 0.01 0.01 0.01 86 1010.2
20260507113444 65 186 0.0 0.0 0.01 0.01 0.01 87 1010.6
20260507113428 65 189 0.0 0.0 0.01 0.01 0.01 87 1010.2
20260507113200 64 191 0.0 0.0 0.01 0.01 0.01 87 1010.1
20260507113144 64 189 0.0 0.0 0.01 0.01 0.01 88 1010.6
20260507112907 64 185 0.0 0.0 0.01 0.01 0.01 87 1010.4
20260507112623 64 185 0.0 0.0 0.01 0.01 0.01 88 1010.5
20260507112608 63 185 0.0 0.0 0.01 0.01 0.01 87 1010.4
20260507112247 63 185 0.0 0.0 0.01 0.01 0.01 86 1010.4
20260507112146 63 185 0.0 0.0 0.01 0.01 0.01 87 1010.4
20260507112119 63 186 0.0 0.0 0.01 0.01 0.01 87 1010.5
20260507112103 63 185 0.0 0.9 0.01 0.01 0.01 87 1010.5
20260507112048 63 179 0.0 0.9 0.01 0.01 0.01 87 1010.6
20260507112031 63 185 0.0 0.9 0.01 0.01 0.01 87 1010.4
20260507112014 63 178 0.0 0.9 0.01 0.01 0.01 87 1010.5
20260507111951 63 182 0.0 0.9 0.01 0.01 0.01 87 1010.4
20260507111713 63 184 0.0 0.9 0.01 0.01 0.01 85 1010.4
20260507111657 63 184 0.0 0.9 0.01 0.01 0.01 85 1010.5
20260507111208 64 174 0.0 0.9 0.01 0.01 0.01 83 1010.7
20260507110847 65 189 0.0 0.9 0.01 0.01 0.01 82 1010.5
20260507110747 66 191 0.0 0.9 0.01 0.01 0.01 81 1010.4
20260507110647 67 192 0.0 0.9 0.01 0.01 0.01 80 1010.2
20260507110549 67 192 0.0 0.9 0.01 0.01 0.01 79 1010.6
20260507110524 68 191 0.0 0.9 0.01 0.01 0.01 77 1010.4
20260507110508 69 192 0.0 0.9 0.01 0.01 0.01 75 1010.5
20260507110147 69 191 0.0 0.9 0.00 0.00 0.01 70 1010.7
20260507110100 69 187 0.0 1.7 0.00 0.00 0.00 69 1010.5
20260507105947 69 194 0.0 1.7 0.00 0.00 0.00 68 1010.5
20260507105848 69 192 0.0 1.7 0.00 0.00 0.00 67 1010.1
20260507105747 69 197 0.0 1.7 0.00 0.00 0.00 67 1010.0
20260507105647 69 202 0.0 1.7 0.00 0.00 0.00 67 1010.1
20260507105547 69 192 0.0 1.7 0.00 0.00 0.00 67 1010.2
20260507105448 69 194 0.0 1.7 0.00 0.00 0.00 67 1010.2
20260507105352 69 192 0.0 0.9 0.00 0.00 0.00 66 1010.2
20260507105348 69 194 0.0 1.7 0.00 0.00 0.00 66 1010.4
20260507105332 69 198 0.0 1.7 0.00 0.00 0.00 65 1010.4
20260507105316 69 212 1.7 1.7 0.00 0.00 0.00 65 1010.4
20260507105258 69 192 0.0 0.9 0.00 0.00 0.00 66 1010.2
20260507104947 69 200 0.0 0.9 0.00 0.00 0.00 67 1010.0
20260507104849 69 198 0.0 0.9 0.00 0.00 0.00 67 1010.1
20260507104833 69 194 0.0 0.9 0.00 0.00 0.00 69 1010.0
20260507104817 68 190 0.0 0.9 0.00 0.00 0.00 70 1010.1
20260507104549 68 198 0.0 1.7 0.00 0.00 0.00 71 1010.0
20260507104448 67 192 0.0 1.7 0.00 0.00 0.00 70 1010.1
20260507104423 67 276 0.0 1.7 0.00 0.00 0.00 71 1010.1
20260507104407 67 268 0.0 2.6 0.00 0.00 0.00 71 1010.2
20260507104352 67 193 0.0 3.5 0.00 0.00 0.00 71 1010.1
20260507104123 66 194 0.0 3.5 0.00 0.00 0.00 71 1010.0
20260507104107 66 178 0.0 3.5 0.00 0.00 0.00 71 1010.1
20260507103748 67 191 0.0 3.5 0.00 0.00 0.00 71 1010.4
20260507103731 67 191 0.0 3.5 0.00 0.00 0.00 71 1010.1
20260507103709 67 196 0.0 3.5 0.00 0.00 0.00 70 1010.1
20260507103351 66 193 0.9 2.6 0.00 0.00 0.00 71 1010.0
20260507103346 67 199 0.9 3.5 0.00 0.00 0.00 71 1010.0
20260507103331 67 211 0.9 2.6 0.00 0.00 0.00 71 1010.2
20260507103315 67 185 0.0 2.6 0.00 0.00 0.00 72 1010.1
20260507103257 66 193 0.9 2.6 0.00 0.00 0.00 71 1010.0
20260507102947 66 207 0.0 1.7 0.00 0.00 0.00 71 1010.0
20260507102846 66 168 0.0 1.7 0.00 0.00 0.00 71 1010.0
20260507102748 66 144 0.0 1.7 0.00 0.00 0.00 71 1009.8
20260507102647 67 137 0.9 1.7 0.00 0.00 0.00 72 1010.2
20260507102547 67 164 0.0 0.0 0.00 0.00 0.00 73 1009.9
20260507102447 67 183 0.0 0.0 0.00 0.00 0.00 72 1010.1
20260507102348 67 187 0.0 0.0 0.00 0.00 0.00 71 1010.4
20260507102246 67 186 0.0 0.0 0.00 0.00 0.00 71 1010.1
20260507102147 67 180 0.0 0.0 0.00 0.00 0.00 71 1010.1
20260507102047 67 182 0.0 0.0 0.00 0.00 0.00 71 1010.4
20260507101949 67 191 0.0 0.0 0.00 0.00 0.00 72 1010.0
20260507101848 67 174 0.0 0.0 0.00 0.00 0.00 73 1010.2
20260507101747 67 188 0.0 0.0 0.00 0.00 0.00 74 1010.1
20260507101725 67 179 0.0 0.0 0.00 0.00 0.00 73 1010.2
20260507101720 68 175 0.0 0.9 0.00 0.00 0.00 71 1010.4
20260507101713 67 190 0.0 0.0 0.00 0.00 0.00 74 1010.5
20260507101650 67 190 0.0 0.0 0.00 0.00 0.00 73 1010.4
20260507101635 67 189 0.0 0.0 0.00 0.00 0.00 73 1010.0
20260507101619 67 186 0.0 0.0 0.00 0.00 0.00 73 1010.1
20260507101603 67 183 0.0 0.0 0.00 0.00 0.00 74 1010.4
20260507101322 67 179 0.0 0.0 0.00 0.00 0.00 73 1010.2
20260507101057 67 145 0.0 0.0 0.00 0.00 0.00 73 1010.1
20260507101042 67 160 0.0 0.9 0.00 0.00 0.00 73 1010.4
20260507101026 67 173 0.0 0.9 0.00 0.00 0.00 74 1010.1
20260507101011 68 178 0.0 0.9 0.00 0.00 0.00 73 1010.2
20260507100744 68 160 0.0 0.9 0.00 0.00 0.00 72 1010.1
20260507100729 67 191 0.0 0.9 0.00 0.00 0.00 72 1010.2
20260507100452 68 187 0.0 0.9 0.00 0.00 0.00 71 1010.2
20260507100436 68 185 0.0 0.9 0.00 0.00 0.00 71 1010.2
20260507100416 68 175 0.0 0.9 0.00 0.00 0.00 71 1010.4
20260507095847 68 195 0.0 1.7 0.00 0.00 0.00 70 1010.4
20260507095748 68 180 0.0 2.6 0.00 0.00 0.00 70 1010.2
20260507095647 68 188 0.0 2.6 0.00 0.00 0.00 71 1010.1
20260507095549 68 180 0.0 2.6 0.00 0.00 0.00 71 1010.2
20260507095523 68 190 0.0 2.6 0.00 0.00 0.00 70 1009.9
20260507095507 68 180 0.0 2.6 0.00 0.00 0.00 70 1010.1
20260507095146 68 193 0.0 2.6 0.00 0.00 0.00 71 1010.0
20260507095059 68 237 0.0 2.6 0.00 0.00 0.00 72 1009.9
20260507095023 68 195 0.0 2.6 0.00 0.00 0.00 72 1010.1
20260507095007 67 192 0.0 0.9 0.00 0.00 0.00 73 1010.1
20260507094952 68 196 0.0 0.9 0.00 0.00 0.00 72 1010.4
20260507094710 68 189 0.0 0.9 0.00 0.00 0.00 72 1010.1
20260507094434 68 184 0.0 0.9 0.00 0.00 0.00 72 1010.1
20260507094418 68 188 0.0 0.9 0.00 0.00 0.00 72 1010.4
20260507094153 68 194 0.0 0.9 0.00 0.00 0.00 72 1010.1
20260507094128 67 188 0.0 0.9 0.00 0.00 0.00 72 1010.2
20260507094111 67 191 0.0 5.2 0.00 0.00 0.00 73 1010.0
20260507093847 67 190 0.0 8.7 0.00 0.00 0.00 73 1010.1
20260507093831 67 180 0.0 8.7 0.00 0.00 0.00 74 1010.0
20260507093815 68 84 0.0 8.7 0.00 0.00 0.00 72 1010.2
20260507093758 68 188 0.0 8.7 0.00 0.00 0.00 73 1009.9
20260507093525 68 186 0.0 8.7 0.00 0.00 0.00 73 1010.1
20260507093508 68 165 0.0 8.7 0.00 0.00 0.00 72 1010.2
20260507093452 68 152 0.0 8.7 0.00 0.00 0.00 70 1010.0
20260507093437 68 205 0.0 8.7 0.00 0.00 0.00 69 1010.0
20260507093207 69 186 0.0 8.7 0.00 0.00 0.00 69 1010.1
20260507092847 69 275 0.0 5.2 0.00 0.00 0.00 68 1010.0
20260507092748 70 137 1.7 5.2 0.00 0.00 0.00 68 1010.0
20260507092729 70 207 0.0 2.6 0.00 0.00 0.00 67 1010.1
20260507092707 70 224 0.0 2.6 0.00 0.00 0.00 67 1010.0
20260507092347 70 188 0.0 2.6 0.00 0.00 0.00 68 1010.0
20260507092258 69 192 0.0 1.7 0.00 0.00 0.00 69 1009.8
20260507092253 69 213 0.0 2.6 0.00 0.00 0.00 67 1010.0
20260507092237 69 192 0.0 2.6 0.00 0.00 0.00 69 1010.0
20260507092213 69 191 0.0 2.6 0.00 0.00 0.00 69 1010.0
20260507092157 69 226 0.9 2.6 0.00 0.00 0.00 70 1009.9
20260507092142 69 205 0.0 1.7 0.00 0.00 0.00 70 1010.1
20260507092125 69 191 0.0 1.7 0.00 0.00 0.00 70 1009.6
20260507091847 69 192 0.0 1.7 0.00 0.00 0.00 69 1009.8
20260507091608 69 196 0.0 1.7 0.00 0.00 0.00 69 1009.7
20260507091248 68 283 0.0 1.7 0.00 0.00 0.00 70 1009.7
20260507091147 68 193 0.0 1.7 0.00 0.00 0.00 70 1009.5
20260507091047 68 203 0.9 1.7 0.00 0.00 0.00 70 1009.8
20260507090947 68 189 0.0 0.9 0.00 0.00 0.00 71 1009.8
20260507090846 68 180 0.0 0.9 0.00 0.00 0.00 73 1009.8
20260507090747 67 191 0.0 0.9 0.00 0.00 0.00 74 1009.6
20260507090647 68 182 0.0 0.9 0.00 0.00 0.00 74 1009.9
20260507090547 68 171 0.0 1.7 0.00 0.00 0.00 73 1009.8
20260507090447 68 113 0.0 1.7 0.00 0.00 0.00 72 1009.6
20260507090349 68 185 0.0 1.7 0.00 0.00 0.00 73 1009.6
20260507090246 68 190 0.0 1.7 0.00 0.00 0.00 73 1009.8
20260507090147 67 189 0.0 1.7 0.00 0.00 0.00 73 1009.5
20260507090101 67 191 0.0 1.7 0.00 0.00 0.00 73 1009.5
20260507085947 67 173 0.0 1.7 0.00 0.00 0.00 74 1009.5
20260507085922 67 192 0.0 1.7 0.00 0.00 0.00 74 1009.5
20260507085907 68 184 0.0 1.7 0.00 0.00 0.00 74 1009.7
20260507085619 68 196 0.0 0.9 0.00 0.00 0.00 74 1009.5
20260507085603 68 209 0.9 0.9 0.00 0.00 0.00 73 1009.7
20260507085548 68 191 0.0 0.0 0.00 0.00 0.00 74 1009.3
20260507085533 68 190 0.0 0.0 0.00 0.00 0.00 75 1009.5
20260507085045 68 192 0.0 0.0 0.00 0.00 0.00 75 1009.4
20260507084713 69 192 0.0 3.5 0.00 0.00 0.00 72 1009.4
20260507084612 68 189 0.0 3.5 0.00 0.00 0.00 72 1009.4
20260507084514 68 188 0.0 3.5 0.00 0.00 0.00 73 1009.3
20260507084414 67 189 0.0 3.5 0.00 0.00 0.00 73 1009.3
20260507084313 67 219 0.9 3.5 0.00 0.00 0.00 74 1009.4
20260507084213 67 197 0.0 3.5 0.00 0.00 0.00 73 1009.5
20260507084116 67 191 0.0 3.5 0.00 0.00 0.00 73 1009.5
20260507084106 67 102 0.0 2.6 0.00 0.00 0.00 73 1009.5
20260507084057 67 206 0.0 3.5 0.00 0.00 0.00 74 1009.6
20260507084041 67 175 0.0 3.5 0.00 0.00 0.00 74 1009.6
20260507084023 67 102 0.0 2.6 0.00 0.00 0.00 73 1009.5
20260507083714 67 191 0.0 2.6 0.00 0.00 0.00 74 1009.6
20260507083613 67 139 0.0 2.6 0.00 0.00 0.00 75 1009.6
20260507083558 67 199 0.0 2.6 0.00 0.00 0.00 75 1009.5
20260507083543 66 184 0.0 2.6 0.00 0.00 0.00 75 1009.3
20260507083314 66 196 0.9 2.6 0.00 0.00 0.00 76 1009.5
20260507083215 66 198 0.0 1.7 0.00 0.00 0.00 76 1009.4
20260507083113 66 183 0.0 1.7 0.00 0.00 0.00 76 1009.4
20260507083055 66 150 0.0 0.9 0.00 0.00 0.00 76 1009.0
20260507083040 66 190 0.0 0.9 0.00 0.00 0.00 76 1009.5
20260507082814 65 204 0.0 0.9 0.00 0.00 0.00 77 1009.5
20260507082713 65 196 0.0 0.9 0.00 0.00 0.00 77 1009.3
20260507082651 65 204 0.0 0.9 0.00 0.00 0.00 78 1009.3
20260507082635 65 182 0.0 0.9 0.00 0.00 0.00 78 1009.4
20260507082313 65 185 0.0 0.9 0.00 0.00 0.00 78 1009.4
20260507082213 65 141 0.0 0.9 0.00 0.00 0.00 78 1009.5
20260507082153 65 180 0.0 0.9 0.00 0.00 0.00 77 1009.5
20260507082136 65 181 0.0 0.9 0.00 0.00 0.00 77 1009.4
20260507081905 65 168 0.0 0.9 0.00 0.00 0.00 77 1009.4
20260507081849 65 189 0.0 0.9 0.00 0.00 0.00 77 1009.2
20260507081834 65 181 0.0 0.9 0.00 0.00 0.00 77 1009.3
20260507081557 65 181 0.0 0.9 0.00 0.00 0.00 78 1009.3
20260507081542 65 117 0.0 0.9 0.00 0.00 0.00 77 1009.2
20260507081523 65 168 0.0 0.9 0.00 0.00 0.00 77 1009.4
20260507081213 65 189 0.0 0.9 0.00 0.00 0.00 78 1009.4
20260507081134 64 176 0.0 7.0 0.00 0.00 0.00 79 1009.4
20260507081127 65 192 0.0 2.6 0.00 0.00 0.00 78 1009.2
20260507081112 65 186 0.0 2.6 0.00 0.00 0.00 78 1009.1
20260507081056 65 119 0.0 2.6 0.00 0.00 0.00 78 1009.2
20260507081034 65 139 0.9 2.6 0.00 0.00 0.00 78 1009.0
20260507081017 65 147 0.0 2.6 0.00 0.00 0.00 78 1009.0
20260507081002 65 186 0.0 2.6 0.00 0.00 0.00 78 1009.3
20260507080947 64 229 0.0 2.6 0.00 0.00 0.00 78 1009.1
20260507080931 64 182 0.0 2.6 0.00 0.00 0.00 78 1009.3
20260507080701 64 178 0.0 2.6 0.00 0.00 0.00 79 1009.3
20260507080646 64 25 0.9 2.6 0.00 0.00 0.00 78 1009.2
20260507080630 64 196 0.0 1.7 0.00 0.00 0.00 79 1009.3
20260507080355 64 189 0.0 1.7 0.00 0.00 0.00 79 1009.1
20260507080338 64 176 0.0 7.0 0.00 0.00 0.00 79 1009.4
20260507075632 64 176 0.0 7.0 0.00 0.00 0.00 79 1009.1
20260507075347 65 206 0.0 7.0 0.00 0.00 0.00 78 1009.0
20260507075332 65 191 0.0 7.0 0.00 0.00 0.00 77 1009.0
20260507075317 65 182 0.0 7.0 0.00 0.00 0.00 77 1009.2
20260507075300 65 99 0.0 7.0 0.00 0.00 0.00 77 1009.2
20260507074813 65 187 0.0 8.7 0.00 0.00 0.00 77 1009.1
20260507074714 65 204 0.0 8.7 0.00 0.00 0.00 77 1009.1
20260507074649 65 223 0.9 8.7 0.00 0.00 0.00 77 1009.0
20260507074634 65 161 0.9 8.7 0.00 0.00 0.00 78 1009.0
20260507074618 65 187 0.0 8.7 0.00 0.00 0.00 78 1008.8
20260507074554 65 183 0.0 8.7 0.00 0.00 0.00 78 1008.9
20260507074013 65 201 2.6 8.7 0.00 0.00 0.00 77 1008.6
20260507073912 65 196 0.0 1.7 0.00 0.00 0.00 78 1008.8
20260507073813 65 171 0.0 1.7 0.00 0.00 0.00 78 1008.8
20260507073713 65 182 0.0 1.7 0.00 0.00 0.00 78 1008.7
20260507073613 64 183 0.0 2.6 0.00 0.00 0.00 78 1008.8
20260507073558 64 180 0.0 2.6 0.00 0.00 0.00 78 1008.7
20260507073542 64 189 0.0 2.6 0.00 0.00 0.00 78 1008.9
20260507073313 64 174 0.0 3.5 0.00 0.00 0.00 79 1008.9
20260507073249 64 278 0.0 7.8 0.00 0.00 0.00 79 1008.6
20260507073241 64 179 0.0 3.5 0.00 0.00 0.00 79 1008.6
20260507073226 64 162 0.0 3.5 0.00 0.00 0.00 78 1008.6
20260507073211 64 145 0.0 5.2 0.00 0.00 0.00 79 1008.6
20260507072928 64 188 0.0 5.2 0.00 0.00 0.00 79 1008.7
20260507072911 64 182 0.0 5.2 0.00 0.00 0.00 79 1008.6
20260507072855 64 185 0.0 5.2 0.00 0.00 0.00 80 1008.7
20260507072839 64 190 0.0 5.2 0.00 0.00 0.00 79 1008.7
20260507072823 64 167 0.9 7.8 0.00 0.00 0.00 79 1008.6
20260507072555 64 204 0.9 7.8 0.00 0.00 0.00 79 1008.7
20260507072538 64 191 0.0 7.8 0.00 0.00 0.00 79 1008.7
20260507072523 64 207 1.7 7.8 0.00 0.00 0.00 79 1008.8
20260507072025 64 278 0.0 7.8 0.00 0.00 0.00 79 1008.6
20260507071714 64 188 0.0 7.8 0.00 0.00 0.00 80 1008.7
20260507071614 64 194 0.0 7.8 0.00 0.00 0.00 80 1008.5
20260507071513 64 200 2.6 7.8 0.00 0.00 0.00 79 1008.6
20260507071414 64 172 0.0 3.5 0.00 0.00 0.00 79 1008.4
20260507071350 64 181 0.0 3.5 0.00 0.00 0.00 79 1008.7
20260507071333 64 152 0.0 3.5 0.00 0.00 0.00 79 1008.5
20260507071024 63 133 0.0 7.0 0.00 0.00 0.00 80 1008.4
20260507071020 63 201 0.0 8.7 0.00 0.00 0.00 80 1008.3
20260507071013 64 245 3.5 3.5 0.00 0.00 0.00 79 1008.5
20260507070958 64 189 0.0 2.6 0.00 0.00 0.00 80 1008.7
20260507070935 64 178 0.0 2.6 0.00 0.00 0.00 79 1008.6
20260507070918 64 187 0.0 2.6 0.00 0.00 0.00 80 1008.5
20260507070643 64 196 0.0 7.0 0.00 0.00 0.00 80 1008.6
20260507070626 64 187 0.0 7.0 0.00 0.00 0.00 80 1008.7
20260507070606 63 133 0.0 7.0 0.00 0.00 0.00 80 1008.4
20260507070340 63 209 0.9 7.0 0.00 0.00 0.00 80 1008.6
20260507070103 63 182 0.0 7.0 0.00 0.00 0.00 80 1008.4
20260507070047 63 181 0.0 8.7 0.00 0.00 0.00 81 1008.5
20260507070030 63 201 0.0 8.7 0.00 0.00 0.00 80 1008.3
20260507065804 63 200 1.7 8.7 0.00 0.00 0.00 80 1008.4
20260507065747 63 161 0.9 8.7 0.00 0.00 0.00 80 1008.5
20260507065731 63 194 0.0 8.7 0.00 0.00 0.00 80 1008.4
20260507065446 63 209 0.9 8.7 0.00 0.00 0.00 80 1008.5
20260507065211 63 223 0.0 8.7 0.00 0.00 0.00 80 1008.2
20260507065155 63 183 0.0 12.2 0.00 0.00 0.00 80 1008.3
20260507065139 63 232 3.5 12.2 0.00 0.00 0.00 79 1008.2
20260507065116 63 233 0.0 12.2 0.00 0.00 0.00 79 1008.3
20260507065101 63 187 0.0 12.2 0.00 0.00 0.00 80 1008.5
20260507064825 63 229 4.3 12.2 0.00 0.00 0.00 80 1008.2
20260507064809 62 157 0.9 12.2 0.00 0.00 0.00 80 1008.4
20260507064745 62 175 0.9 12.2 0.00 0.00 0.00 80 1008.3
20260507064250 62 251 1.7 6.1 0.00 0.00 0.00 81 1008.2
20260507064008 62 264 1.7 14.8 0.00 0.00 0.00 81 1008.4
20260507063733 62 239 1.7 14.8 0.00 0.00 0.00 82 1008.4
20260507063413 62 201 2.6 14.8 0.00 0.00 0.00 82 1008.2
20260507063313 62 180 0.0 14.8 0.00 0.00 0.00 82 1008.3
20260507063213 61 242 3.5 14.8 0.00 0.00 0.00 82 1008.4
20260507063113 61 233 2.6 14.8 0.00 0.00 0.00 82 1008.1
20260507063012 62 224 3.5 14.8 0.00 0.00 0.00 82 1008.1
20260507062914 62 228 5.2 11.3 0.00 0.00 0.00 81 1008.2
20260507062813 62 220 3.5 11.3 0.00 0.00 0.00 82 1008.3
20260507062713 62 224 0.9 11.3 0.00 0.00 0.00 81 1008.2
20260507062613 62 200 0.0 11.3 0.00 0.00 0.00 82 1008.2
20260507062513 62 186 0.0 11.3 0.00 0.00 0.00 82 1008.4
20260507062414 62 213 0.0 11.3 0.00 0.00 0.00 81 1008.4
20260507062313 62 242 3.5 11.3 0.00 0.00 0.00 81 1008.3
20260507062213 62 205 0.0 11.3 0.00 0.00 0.00 81 1008.3
20260507062113 62 258 7.8 11.3 0.00 0.00 0.00 81 1008.1
20260507062013 62 229 4.3 13.0 0.00 0.00 0.00 81 1008.3
20260507061913 62 208 3.5 13.0 0.00 0.00 0.00 81 1008.2
20260507061813 62 216 0.0 13.0 0.00 0.00 0.00 81 1008.1
20260507061713 62 216 0.9 13.0 0.00 0.00 0.00 81 1008.2
20260507061619 62 191 0.0 13.0 0.00 0.00 0.00 81 1008.2
20260507061614 62 231 0.0 13.0 0.00 0.00 0.00 81 1008.0
20260507061558 62 324 0.9 13.0 0.00 0.00 0.00 81 1008.4
20260507061542 62 235 0.9 13.0 0.00 0.00 0.00 81 1008.1
20260507061523 62 191 0.0 13.0 0.00 0.00 0.00 81 1008.2
20260507061214 62 237 1.7 13.0 0.00 0.00 0.00 80 1007.8
20260507061112 62 203 7.0 13.0 0.00 0.00 0.00 80 1007.8
20260507061014 62 330 1.7 8.7 0.00 0.00 0.00 81 1008.2
20260507060913 62 218 1.7 8.7 0.00 0.00 0.00 81 1008.2
20260507060813 62 180 0.0 8.7 0.00 0.00 0.00 81 1008.3
20260507060713 62 199 0.9 8.7 0.00 0.00 0.00 82 1008.1
20260507060612 62 190 0.0 8.7 0.00 0.00 0.00 82 1008.1
20260507060557 61 196 0.0 8.7 0.00 0.00 0.00 82 1007.8
20260507060541 61 249 3.5 8.7 0.00 0.00 0.00 82 1008.0
20260507060313 61 224 0.0 8.7 0.00 0.00 0.00 83 1008.0
20260507060215 61 255 0.9 8.7 0.00 0.00 0.00 82 1008.0
20260507060112 61 221 3.5 8.7 0.00 0.00 0.00 83 1008.0
20260507060012 61 80 0.9 8.7 0.00 0.00 0.00 83 1007.9
20260507055913 61 220 2.6 8.7 0.00 0.00 0.00 83 1008.1
20260507055813 61 204 3.5 8.7 0.00 0.00 0.00 83 1007.9
20260507055714 61 198 0.0 8.7 0.00 0.00 0.00 83 1008.1
20260507055613 60 236 3.5 8.7 0.00 0.00 0.00 83 1008.0
20260507055516 60 198 0.0 7.0 0.00 0.00 0.00 83 1008.2
20260507055500 60 212 0.9 7.0 0.00 0.00 0.00 84 1008.0
20260507055435 60 235 2.6 7.0 0.00 0.00 0.00 84 1007.8
20260507055115 60 211 0.0 5.2 0.00 0.00 0.00 85 1008.0
20260507055104 60 215 1.7 5.2 0.00 0.00 0.00 85 1008.0
20260507055055 60 232 2.6 5.2 0.00 0.00 0.00 85 1008.0
20260507055039 60 180 0.0 5.2 0.00 0.00 0.00 85 1008.0
20260507055023 60 215 1.7 5.2 0.00 0.00 0.00 85 1008.0
20260507054714 60 186 0.0 5.2 0.00 0.00 0.00 86 1007.9
20260507054614 60 208 0.9 5.2 0.00 0.00 0.00 86 1007.9
20260507054513 59 191 0.0 5.2 0.00 0.00 0.00 86 1007.9
20260507054414 59 211 0.0 5.2 0.00 0.00 0.00 86 1007.9
20260507054350 59 216 0.9 5.2 0.00 0.00 0.00 86 1008.0
20260507054334 59 207 0.9 5.2 0.00 0.00 0.00 86 1007.8
20260507054055 59 210 0.0 5.2 0.00 0.00 0.00 86 1007.9
20260507054040 59 215 1.7 3.5 0.00 0.00 0.00 86 1007.7
20260507053813 59 203 0.0 3.5 0.00 0.00 0.00 86 1007.8
20260507053713 59 207 1.7 3.5 0.00 0.00 0.00 86 1007.8
20260507053614 59 194 0.0 3.5 0.00 0.00 0.00 87 1007.9
20260507053557 59 192 0.0 3.5 0.00 0.00 0.00 87 1007.8
20260507053541 59 193 0.0 3.5 0.00 0.00 0.00 86 1007.9
20260507053313 59 202 0.0 3.5 0.00 0.00 0.00 86 1007.9
20260507053250 59 207 0.0 0.9 0.00 0.00 0.00 86 1007.9
20260507053234 59 190 0.0 0.0 0.00 0.00 0.00 86 1007.7
20260507052946 59 187 0.0 0.9 0.00 0.00 0.00 86 1008.1
20260507052924 59 190 0.0 0.9 0.00 0.00 0.00 86 1008.0
20260507052909 59 190 0.0 0.9 0.00 0.00 0.00 86 1008.1
20260507052632 59 190 0.0 0.9 0.00 0.00 0.00 86 1008.0
20260507052313 59 190 0.0 0.9 0.00 0.00 0.00 86 1007.8
20260507052213 59 188 0.0 0.9 0.00 0.00 0.00 86 1008.0
20260507052149 59 191 0.0 0.9 0.00 0.00 0.00 86 1007.8
20260507052134 59 189 0.0 0.9 0.00 0.00 0.00 86 1007.8
20260507051813 59 194 0.0 0.9 0.00 0.00 0.00 86 1007.9
20260507051715 59 202 0.0 0.9 0.00 0.00 0.00 86 1007.6
20260507051613 59 204 0.0 0.9 0.00 0.00 0.00 86 1007.8
20260507051512 60 202 0.0 0.9 0.00 0.00 0.00 86 1007.7
20260507051414 60 186 0.0 0.0 0.00 0.00 0.00 86 1007.6
20260507051312 60 194 0.0 0.0 0.00 0.00 0.00 86 1007.9
20260507051213 60 193 0.0 0.0 0.00 0.00 0.00 86 1007.9
20260507051114 60 199 0.0 0.0 0.00 0.00 0.00 86 1008.0
20260507051012 60 198 0.0 0.0 0.00 0.00 0.00 86 1007.9
20260507050913 60 196 0.0 0.0 0.00 0.00 0.00 86 1007.8
20260507050813 60 199 0.0 0.0 0.00 0.00 0.00 86 1007.8
20260507050714 60 193 0.0 0.0 0.00 0.00 0.00 86 1007.8
20260507050648 60 193 0.0 0.0 0.00 0.00 0.00 85 1007.5
20260507050632 60 192 0.0 0.0 0.00 0.00 0.00 86 1007.7
20260507050617 60 192 0.0 0.0 0.00 0.00 0.00 86 1007.7
20260507050552 60 192 0.0 0.0 0.00 0.00 0.00 86 1007.6
20260507050013 60 191 0.0 0.0 0.00 0.00 0.00 85 1007.5
20260507045913 60 191 0.0 0.9 0.00 0.00 0.00 85 1007.5
20260507045849 60 191 0.0 1.7 0.00 0.00 0.00 85 1007.7
20260507045834 60 191 0.0 1.7 0.00 0.00 0.00 85 1007.6
20260507045513 60 193 0.0 1.7 0.00 0.00 0.00 85 1007.5
20260507045415 60 196 0.0 1.7 0.00 0.00 0.00 85 1007.4
20260507045313 60 198 0.0 1.7 0.00 0.00 0.00 85 1007.7
20260507045213 60 198 0.0 1.7 0.00 0.00 0.00 85 1007.6
20260507045113 59 198 0.0 1.7 0.00 0.00 0.00 85 1007.5
20260507045014 59 202 0.0 1.7 0.00 0.00 0.00 85 1007.3
20260507044915 59 205 1.7 1.7 0.00 0.00 0.00 85 1007.5
20260507044813 59 206 0.0 1.7 0.00 0.00 0.00 85 1007.3
20260507044714 59 192 0.0 3.5 0.00 0.00 0.00 85 1007.5
20260507044650 59 188 0.0 3.5 0.00 0.00 0.00 85 1007.4
20260507044633 59 188 0.0 3.5 0.00 0.00 0.00 85 1007.5
20260507044617 59 187 0.0 3.5 0.00 0.00 0.00 86 1007.4
20260507044553 59 190 0.0 3.5 0.00 0.00 0.00 86 1007.6
20260507044316 59 196 0.0 3.5 0.00 0.00 0.00 86 1007.1
20260507044039 59 201 0.0 3.5 0.00 0.00 0.00 85 1007.3
20260507043813 59 221 2.6 3.5 0.00 0.00 0.00 85 1007.4
20260507043714 59 201 0.9 1.7 0.00 0.00 0.00 85 1007.3
20260507043613 59 206 0.0 1.7 0.00 0.00 0.00 85 1007.4
20260507043514 59 198 0.0 0.9 0.00 0.00 0.00 85 1007.4
20260507043413 59 203 0.0 0.9 0.00 0.00 0.00 85 1007.4
20260507043307 59 201 0.0 0.9 0.00 0.00 0.00 85 1007.4
20260507042920 59 200 0.0 0.9 0.00 0.00 0.00 85 1007.2
20260507042901 60 198 0.0 0.9 0.00 0.00 0.00 85 1007.1
20260507042846 60 199 0.0 0.9 0.00 0.00 0.00 84 1007.4
20260507042831 60 201 0.0 0.9 0.00 0.00 0.00 84 1007.4
20260507042519 60 196 0.0 0.9 0.00 0.00 0.00 84 1007.5
20260507042419 60 169 0.0 0.9 0.00 0.00 0.00 84 1007.3
20260507042351 60 192 0.0 0.9 0.00 0.00 0.00 84 1007.2
20260507042335 60 196 0.0 0.9 0.00 0.00 0.00 84 1007.2
20260507042322 60 221 0.0 0.9 0.00 0.00 0.00 84 1007.2
20260507042007 60 196 0.0 0.9 0.00 0.00 0.00 83 1007.0
20260507041908 60 194 0.0 0.9 0.00 0.00 0.00 83 1007.0
20260507041808 60 194 0.0 0.9 0.00 0.00 0.00 83 1007.2
20260507041707 60 196 0.0 0.9 0.00 0.00 0.00 83 1007.0
20260507041639 60 196 0.0 0.9 0.00 0.00 0.00 83 1007.0
20260507041609 60 223 0.0 0.9 0.00 0.00 0.00 83 1007.3
20260507041507 60 196 0.0 0.0 0.00 0.00 0.00 83 1007.2
20260507041434 60 198 0.0 0.0 0.00 0.00 0.00 83 1007.1
20260507041427 60 196 0.0 0.0 0.00 0.00 0.00 83 1007.1
20260507041412 60 196 0.0 0.0 0.00 0.00 0.00 83 1007.2
20260507041357 60 196 0.0 0.0 0.00 0.00 0.00 83 1007.1
20260507041108 60 197 0.0 0.0 0.00 0.00 0.00 83 1007.2
20260507041007 60 190 0.0 0.0 0.00 0.00 0.00 82 1007.0
20260507040943 60 192 0.0 0.0 0.00 0.00 0.00 82 1006.9
20260507040928 60 198 0.0 0.0 0.00 0.00 0.00 82 1006.9
20260507040639 60 194 0.0 0.0 0.00 0.00 0.00 82 1006.9
20260507040607 60 194 0.0 0.0 0.00 0.00 0.00 82 1007.0
20260507040531 60 194 0.0 0.0 0.00 0.00 0.00 82 1007.1
20260507040516 60 194 0.0 0.0 0.00 0.00 0.00 82 1006.8
20260507040140 60 196 0.0 0.0 0.00 0.00 0.00 82 1007.2
20260507040056 60 191 0.0 0.0 0.00 0.00 0.00 82 1006.9
20260507035957 60 191 0.0 0.0 0.00 0.00 0.00 82 1006.9
20260507035856 60 191 0.0 0.0 0.00 0.00 0.00 82 1007.0
20260507035755 60 191 0.0 0.0 0.00 0.00 0.00 82 1007.0
20260507035726 60 191 0.0 0.0 0.00 0.00 0.00 82 1006.9
20260507035715 60 192 0.0 0.0 0.00 0.00 0.00 82 1007.0
20260507035356 60 191 0.0 0.0 0.00 0.00 0.00 82 1006.9
20260507035255 60 191 0.0 0.0 0.00 0.00 0.00 82 1006.7
20260507035156 60 191 0.0 0.0 0.00 0.00 0.00 82 1006.7
20260507035139 60 192 0.0 0.0 0.00 0.00 0.00 81 1006.7
20260507035055 60 191 0.0 0.0 0.00 0.00 0.00 81 1006.8
20260507034957 60 189 0.0 0.0 0.00 0.00 0.00 81 1006.7
20260507034936 60 190 0.0 0.9 0.00 0.00 0.00 81 1006.8
20260507034928 60 190 0.0 0.9 0.00 0.00 0.00 81 1006.8
20260507034912 60 190 0.0 0.9 0.00 0.00 0.00 81 1006.9
20260507034856 60 190 0.0 0.9 0.00 0.00 0.00 81 1006.8
20260507034555 60 190 0.0 1.7 0.00 0.00 0.00 81 1006.7
20260507034455 60 190 0.0 1.7 0.00 0.00 0.00 81 1006.7
20260507034431 60 190 0.0 2.6 0.00 0.00 0.00 81 1006.9
20260507034415 60 191 0.0 2.6 0.00 0.00 0.00 81 1006.8
20260507034139 60 192 0.0 2.6 0.00 0.00 0.00 81 1006.8
20260507034055 60 196 0.0 2.6 0.00 0.00 0.00 81 1006.6
20260507033956 60 200 0.0 2.6 0.00 0.00 0.00 81 1006.9
20260507033857 60 197 0.0 3.5 0.00 0.00 0.00 80 1006.9
20260507033755 60 194 0.0 3.5 0.00 0.00 0.00 81 1006.9
20260507033655 60 204 0.0 3.5 0.00 0.00 0.00 80 1006.6
20260507033639 60 211 1.7 3.5 0.00 0.00 0.00 80 1006.6
20260507033556 60 196 0.0 3.5 0.00 0.00 0.00 80 1006.8
20260507033456 60 205 0.0 5.2 0.00 0.00 0.00 80 1007.1
20260507033419 60 194 0.0 5.2 0.00 0.00 0.00 80 1006.5
20260507033405 60 202 0.0 5.2 0.00 0.00 0.00 80 1006.7
20260507033130 60 201 0.0 5.2 0.00 0.00 0.00 80 1006.6
20260507033047 60 190 0.0 5.2 0.00 0.00 0.00 80 1006.9
20260507032947 60 205 0.9 5.2 0.00 0.00 0.00 80 1006.6
20260507032845 60 192 0.0 5.2 0.00 0.00 0.00 81 1006.5
20260507032746 60 201 0.0 5.2 0.00 0.00 0.00 81 1006.7
20260507032707 60 187 0.0 5.2 0.00 0.00 0.00 81 1006.7
20260507032657 60 187 0.0 5.2 0.00 0.00 0.00 81 1006.7
20260507032641 60 226 0.9 2.6 0.00 0.00 0.00 81 1006.6
20260507032405 60 216 0.0 2.6 0.00 0.00 0.00 81 1006.8
20260507032127 60 204 0.0 2.6 0.00 0.00 0.00 81 1006.9
20260507032053 60 192 0.0 2.6 0.00 0.00 0.00 82 1006.4
20260507032048 60 206 0.9 2.6 0.00 0.00 0.00 81 1006.9
20260507032032 60 177 0.0 2.6 0.00 0.00 0.00 81 1006.8
20260507032017 60 178 0.0 2.6 0.00 0.00 0.00 82 1006.5
20260507032001 60 232 0.0 2.6 0.00 0.00 0.00 82 1006.7
20260507031944 60 216 0.9 2.6 0.00 0.00 0.00 82 1006.6
20260507031932 60 181 0.0 2.6 0.00 0.00 0.00 82 1006.6
20260507031701 60 195 0.0 2.6 0.00 0.00 0.00 82 1006.7
20260507031645 60 220 0.0 2.6 0.00 0.00 0.00 82 1006.4
20260507031630 60 204 0.9 2.6 0.00 0.00 0.00 82 1006.7
20260507031614 60 190 0.0 2.6 0.00 0.00 0.00 82 1006.7
20260507031345 60 200 0.0 2.6 0.00 0.00 0.00 83 1006.4
20260507030848 60 193 0.0 0.9 0.00 0.00 0.00 83 1006.5
20260507030622 60 194 0.0 0.9 0.00 0.00 0.00 83 1006.4
20260507030521 60 194 0.0 0.9 0.00 0.00 0.00 83 1006.6
20260507030422 60 196 0.0 0.0 0.00 0.00 0.00 83 1006.4
20260507030321 60 197 0.0 0.9 0.00 0.00 0.00 83 1006.4
20260507030222 60 198 0.0 1.7 0.00 0.00 0.00 83 1006.4
20260507030122 60 200 0.0 1.7 0.00 0.00 0.00 83 1006.4
20260507030021 59 197 0.0 1.7 0.00 0.00 0.00 83 1006.5
20260507025921 59 199 0.0 1.7 0.00 0.00 0.00 83 1006.4
20260507025820 59 199 0.0 1.7 0.00 0.00 0.00 83 1006.2
20260507025719 59 199 0.0 1.7 0.00 0.00 0.00 83 1006.0
20260507025619 59 200 0.0 1.7 0.00 0.00 0.00 83 1006.5
20260507025516 59 200 0.0 1.7 0.00 0.00 0.00 83 1006.3
20260507025416 59 200 0.0 1.7 0.00 0.00 0.00 83 1006.4
20260507025315 59 210 0.9 1.7 0.00 0.00 0.00 83 1006.3
20260507025213 59 199 0.0 0.0 0.00 0.00 0.00 83 1006.2
20260507025115 59 199 0.0 0.0 0.00 0.00 0.00 83 1006.2
20260507025049 59 196 0.0 3.5 0.00 0.00 0.00 83 1006.6
20260507025038 59 202 0.0 0.9 0.00 0.00 0.00 83 1006.4
20260507025022 59 201 0.0 3.5 0.00 0.00 0.00 83 1006.3
20260507025006 59 206 0.0 3.5 0.00 0.00 0.00 83 1006.3
20260507024951 59 206 0.0 3.5 0.00 0.00 0.00 83 1006.3
20260507024933 59 196 0.0 3.5 0.00 0.00 0.00 83 1006.6
20260507024706 59 199 0.0 3.5 0.00 0.00 0.00 83 1006.5
20260507024430 59 203 0.0 3.5 0.00 0.00 0.00 83 1006.5
20260507024147 59 208 0.0 3.5 0.00 0.00 0.00 84 1006.6
20260507024129 58 200 0.9 3.5 0.00 0.00 0.00 84 1006.3
20260507023849 58 204 0.0 2.6 0.00 0.00 0.00 85 1006.4
20260507023834 58 200 0.0 2.6 0.00 0.00 0.00 85 1006.6
20260507023608 58 198 0.0 2.6 0.00 0.00 0.00 85 1006.4
20260507023508 58 213 0.0 1.7 0.00 0.00 0.00 86 1006.3
20260507023408 57 192 0.0 0.0 0.00 0.00 0.00 86 1006.2
20260507023309 57 185 0.0 0.0 0.00 0.00 0.00 86 1006.3
20260507023208 57 185 0.0 0.0 0.00 0.00 0.00 86 1006.2
20260507023108 57 185 0.0 0.0 0.00 0.00 0.00 86 1006.3
20260507023008 57 185 0.0 0.0 0.00 0.00 0.00 87 1006.4
20260507022951 56 176 0.0 0.0 0.00 0.00 0.00 90 1006.2
20260507022942 57 185 0.0 0.0 0.00 0.00 0.00 87 1006.5
20260507022927 57 185 0.0 0.0 0.00 0.00 0.00 88 1006.5
20260507022911 57 185 0.0 0.0 0.00 0.00 0.00 88 1006.4
20260507022849 56 185 0.0 0.0 0.00 0.00 0.00 88 1006.4
20260507022833 56 185 0.0 0.0 0.00 0.00 0.00 89 1006.6
20260507022816 56 185 0.0 0.0 0.00 0.00 0.00 89 1006.3
20260507022540 56 180 0.0 0.0 0.00 0.00 0.00 90 1006.2
20260507022008 56 176 0.0 0.0 0.00 0.00 0.00 90 1006.4
20260507021931 56 178 0.0 0.0 0.00 0.00 0.00 91 1006.3
20260507021915 56 177 0.0 0.0 0.00 0.00 0.00 91 1006.4
20260507021555 56 173 0.0 0.0 0.00 0.00 0.00 90 1006.3
20260507021532 56 181 0.0 0.0 0.00 0.00 0.00 90 1006.4
20260507021516 56 184 0.0 0.0 0.00 0.00 0.00 90 1006.2
20260507021155 56 184 0.0 0.0 0.00 0.00 0.00 89 1006.5
20260507021056 56 187 0.0 0.0 0.00 0.00 0.00 88 1006.3
20260507021031 57 187 0.0 0.0 0.00 0.00 0.00 88 1006.4
20260507021016 57 188 0.0 0.0 0.00 0.00 0.00 88 1006.5
20260507020959 57 188 0.0 0.0 0.00 0.00 0.00 88 1006.3
20260507020717 57 188 0.0 0.0 0.00 0.00 0.00 88 1006.3
20260507020415 57 188 0.0 0.0 0.00 0.00 0.00 87 1006.4
20260507020409 57 188 0.0 0.0 0.00 0.00 0.00 87 1006.2
20260507020353 57 188 0.0 0.0 0.00 0.00 0.00 87 1006.4
20260507020336 57 188 0.0 0.0 0.00 0.00 0.00 87 1006.3
20260507020318 57 188 0.0 0.0 0.00 0.00 0.00 87 1006.4
20260507015955 57 187 0.0 0.0 0.00 0.00 0.00 87 1006.3
20260507015855 57 187 0.0 0.0 0.00 0.00 0.00 87 1006.0
20260507015756 57 188 0.0 0.0 0.00 0.00 0.00 86 1006.2
20260507015655 58 187 0.0 0.0 0.00 0.00 0.00 86 1006.4
20260507015556 58 188 0.0 0.0 0.00 0.00 0.00 86 1006.4
20260507015518 58 188 0.0 0.0 0.00 0.00 0.00 86 1006.5
20260507015502 58 188 0.0 0.0 0.00 0.00 0.00 85 1006.2
20260507015446 58 188 0.0 0.0 0.00 0.00 0.00 85 1006.3
20260507015204 58 188 0.0 0.0 0.00 0.00 0.00 85 1006.2
20260507015147 58 187 0.0 0.0 0.00 0.00 0.00 85 1006.2
20260507015131 58 187 0.0 0.0 0.00 0.00 0.00 85 1006.3
20260507014551 58 187 0.0 0.0 0.00 0.00 0.00 85 1006.2
20260507014440 58 187 0.0 0.0 0.00 0.00 0.00 85 1006.0
20260507014415 57 187 0.0 0.0 0.00 0.00 0.00 85 1006.2
20260507014400 57 186 0.0 0.0 0.00 0.00 0.00 86 1006.3
20260507014039 58 186 0.0 0.0 0.00 0.00 0.00 85 1006.2
20260507013939 58 182 0.0 0.9 0.00 0.00 0.00 85 1006.3
20260507013839 57 179 0.0 0.9 0.00 0.00 0.00 85 1006.2
20260507013740 57 184 0.0 0.9 0.00 0.00 0.00 86 1006.3
20260507013639 57 191 0.0 0.9 0.00 0.00 0.00 87 1006.0
20260507013540 57 192 0.0 2.6 0.00 0.00 0.00 87 1006.2
20260507013440 57 192 0.0 2.6 0.00 0.00 0.00 87 1006.0
20260507013340 57 192 0.0 2.6 0.00 0.00 0.00 87 1006.5
20260507013240 57 190 0.0 2.6 0.00 0.00 0.00 86 1005.9
20260507013139 57 181 0.0 2.6 0.00 0.00 0.00 86 1005.9
20260507013039 57 153 0.0 2.6 0.00 0.00 0.00 86 1005.9
20260507012939 57 179 0.0 2.6 0.00 0.00 0.00 86 1006.0
20260507012839 57 192 0.0 2.6 0.00 0.00 0.00 86 1005.8
20260507012740 57 194 0.0 2.6 0.00 0.00 0.00 86 1005.9
20260507012640 58 203 1.7 2.6 0.00 0.00 0.00 85 1006.0
20260507012539 58 175 0.0 0.0 0.00 0.00 0.00 85 1005.9
20260507012439 58 170 0.0 0.0 0.00 0.00 0.00 85 1005.9
20260507012339 57 174 0.0 0.0 0.00 0.00 0.00 85 1005.9
20260507012240 57 181 0.0 0.0 0.00 0.00 0.00 85 1006.0
20260507012224 58 190 0.0 0.0 0.00 0.00 0.00 85 1006.0
20260507012200 58 190 0.0 0.0 0.00 0.00 0.00 85 1006.0
20260507011839 58 191 0.0 0.0 0.00 0.00 0.00 85 1006.3
20260507011739 58 191 0.0 0.0 0.00 0.00 0.00 85 1006.0
20260507011723 58 191 0.0 0.0 0.00 0.00 0.00 85 1005.7
20260507011702 58 191 0.0 0.0 0.00 0.00 0.00 85 1006.2
20260507011646 58 191 0.0 0.0 0.00 0.00 0.00 85 1005.9
20260507011410 58 191 0.0 0.0 0.00 0.00 0.00 84 1006.4
20260507011354 58 191 0.0 0.0 0.00 0.00 0.00 84 1006.2
20260507011330 58 191 0.0 0.0 0.00 0.00 0.00 84 1006.0
20260507010835 58 190 0.0 0.0 0.00 0.00 0.00 84 1006.3
20260507010818 58 188 0.0 0.0 0.00 0.00 0.00 84 1006.0
20260507010551 58 193 0.0 0.0 0.00 0.00 0.00 83 1006.0
20260507010439 58 194 0.0 0.0 0.00 0.00 0.00 83 1005.9
20260507010339 58 190 0.0 0.0 0.00 0.00 0.00 83 1005.9
20260507010239 59 182 0.0 0.0 0.00 0.00 0.00 83 1006.3
20260507010140 59 183 0.0 0.0 0.00 0.00 0.00 82 1005.9
20260507010039 59 192 0.0 0.0 0.00 0.00 0.00 82 1005.9
20260507005940 59 192 0.0 0.0 0.00 0.00 0.00 82 1006.2
20260507005841 59 192 0.0 0.0 0.00 0.00 0.00 82 1006.2
20260507005829 58 193 0.0 0.0 0.00 0.00 0.00 82 1006.3
20260507005820 58 192 0.0 0.0 0.00 0.00 0.00 82 1006.0
20260507005805 58 192 0.0 0.0 0.00 0.00 0.00 82 1006.0
20260507005747 58 193 0.0 0.0 0.00 0.00 0.00 82 1006.3
20260507005439 58 192 0.0 0.0 0.00 0.00 0.00 82 1005.9
20260507005338 59 192 0.0 0.0 0.00 0.00 0.00 82 1006.0
20260507005239 59 192 0.0 0.0 0.00 0.00 0.00 82 1005.7
20260507005138 59 192 0.0 0.0 0.00 0.00 0.00 81 1005.8
20260507005036 59 192 0.0 0.0 0.00 0.00 0.00 81 1005.9
20260507004616 59 190 0.0 0.0 0.00 0.00 0.00 81 1005.9
20260507004516 59 190 0.0 0.0 0.00 0.00 0.00 81 1006.3
20260507004415 59 190 0.0 0.0 0.00 0.00 0.00 81 1005.9
20260507004317 59 190 0.0 0.0 0.00 0.00 0.00 81 1005.9
20260507004216 59 195 0.0 0.0 0.00 0.00 0.00 81 1006.0
20260507004117 59 221 0.0 0.0 0.00 0.00 0.00 80 1005.8
20260507004044 59 184 0.0 0.0 0.00 0.00 0.00 80 1005.9
20260507004029 59 183 0.0 0.0 0.00 0.00 0.00 80 1005.8
20260507004014 59 184 0.0 0.0 0.00 0.00 0.00 80 1006.0
20260507003958 59 184 0.0 0.0 0.00 0.00 0.00 80 1005.8
20260507003731 59 192 0.0 0.0 0.00 0.00 0.00 80 1005.8
20260507003411 60 192 0.0 0.0 0.00 0.00 0.00 79 1006.0
20260507003311 60 192 0.0 0.0 0.00 0.00 0.00 79 1006.2
20260507003212 60 192 0.0 0.0 0.00 0.00 0.00 79 1005.8
20260507003111 60 192 0.0 0.0 0.00 0.00 0.00 79 1006.0
20260507003012 60 192 0.0 0.0 0.00 0.00 0.00 79 1006.2
20260507002911 60 191 0.0 0.0 0.00 0.00 0.00 79 1005.9
20260507002811 60 192 0.0 0.0 0.00 0.00 0.00 79 1006.2
20260507002742 60 197 0.0 0.0 0.00 0.00 0.00 79 1006.0
20260507002726 60 197 0.0 0.0 0.00 0.00 0.00 78 1005.8
20260507002407 60 197 0.0 0.0 0.00 0.00 0.00 78 1005.9
20260507002326 61 193 0.0 0.0 0.00 0.00 0.00 76 1005.7
20260507002305 60 198 0.0 0.0 0.00 0.00 0.00 78 1005.7
20260507002255 60 197 0.0 0.0 0.00 0.00 0.00 78 1005.7
20260507002239 60 197 0.0 0.0 0.00 0.00 0.00 78 1006.0
20260507002223 61 196 0.0 0.0 0.00 0.00 0.00 78 1006.0
20260507002207 61 204 0.0 0.0 0.00 0.00 0.00 78 1005.8
20260507001931 60 189 0.0 0.0 0.00 0.00 0.00 77 1005.8
20260507001925 60 189 0.0 0.0 0.00 0.00 0.00 77 1005.8
20260507001649 60 186 0.0 0.0 0.00 0.00 0.00 77 1005.9
20260507001634 60 178 0.0 0.0 0.00 0.00 0.00 77 1005.7
20260507001617 60 193 0.0 0.0 0.00 0.00 0.00 77 1005.9
20260507001559 60 193 0.0 0.0 0.00 0.00 0.00 77 1005.8
20260507001553 60 193 0.0 0.0 0.00 0.00 0.00 77 1005.8
20260507001317 60 193 0.0 0.0 0.00 0.00 0.00 77 1005.9
20260507001025 61 193 0.0 0.0 0.00 0.00 0.00 77 1005.8
20260507001018 61 193 0.0 0.0 0.00 0.00 0.00 77 1005.8
20260507001003 61 193 0.0 0.0 0.00 0.00 0.00 77 1005.9
20260507000947 61 193 0.0 0.0 0.00 0.00 0.00 76 1006.0
20260507000239 61 193 0.0 0.0 0.00 0.00 0.00 76 1005.7
20260507000223 61 193 0.0 0.0 0.00 0.00 0.00 76 1005.9
20260506235903 61 193 0.0 0.0 0.00 0.00 0.00 76 1005.7
20260506235804 61 193 0.0 0.0 0.00 0.00 0.00 76 1005.8
20260506235711 61 193 0.0 0.0 0.00 0.00 0.00 76 1005.6
20260506235703 61 193 0.0 0.0 0.00 0.00 0.00 76 1005.6
20260506235603 61 193 0.0 0.0 0.00 0.00 0.00 76 1005.8
20260506235504 61 193 0.0 0.0 0.00 0.00 0.00 76 1005.7
20260506235359 61 193 0.0 0.0 0.00 0.00 0.00 76 1005.7
20260506235259 61 193 0.0 0.0 0.00 0.00 0.00 76 1005.8
20260506235241 61 193 0.0 0.0 0.00 0.00 0.00 76 1005.9
20260506235234 61 193 0.0 0.0 0.00 0.00 0.00 76 1005.9
20260506235218 61 193 0.0 0.0 0.00 0.00 0.00 76 1005.9
20260506234900 61 193 0.0 0.0 0.00 0.00 0.00 75 1005.8
20260506234759 62 193 0.0 0.0 0.00 0.00 0.00 75 1006.0
20260506234706 62 193 0.0 0.0 0.00 0.00 0.00 75 1005.9
20260506234700 62 193 0.0 0.0 0.00 0.00 0.00 75 1005.9
20260506234635 62 193 0.0 0.0 0.00 0.00 0.00 75 1005.9
20260506234618 62 193 0.0 0.0 0.00 0.00 0.00 75 1005.8
20260506234259 62 194 0.0 0.0 0.00 0.00 0.00 75 1005.8
20260506234207 62 194 0.0 0.0 0.00 0.00 0.00 75 1006.2
20260506234158 62 194 0.0 0.0 0.00 0.00 0.00 75 1006.2
20260506234100 62 190 0.0 0.0 0.00 0.00 0.00 75 1006.0
20260506233958 62 193 0.0 0.0 0.00 0.00 0.00 74 1005.9
20260506233858 62 193 0.0 0.0 0.00 0.00 0.00 74 1006.0
20260506233759 62 193 0.0 0.0 0.00 0.00 0.00 74 1005.9
20260506233705 62 193 0.0 0.0 0.00 0.00 0.00 74 1006.0
20260506233658 62 193 0.0 0.0 0.00 0.00 0.00 74 1006.0
20260506233557 62 195 0.0 0.9 0.00 0.00 0.00 74 1006.0
20260506233454 63 192 0.0 2.6 0.00 0.00 0.00 74 1005.7
20260506233402 63 198 0.0 5.2 0.00 0.00 0.00 72 1006.0
20260506233357 63 188 0.0 5.2 0.00 0.00 0.00 73 1005.8
20260506233341 63 189 0.0 5.2 0.00 0.00 0.00 73 1005.9
20260506233317 63 189 0.0 5.2 0.00 0.00 0.00 73 1005.9
20260506233302 63 188 0.0 5.2 0.00 0.00 0.00 73 1005.7
20260506233246 63 187 0.0 5.2 0.00 0.00 0.00 73 1006.3
20260506233230 63 186 0.0 5.2 0.00 0.00 0.00 73 1005.8
20260506233215 63 192 0.0 5.2 0.00 0.00 0.00 72 1005.9
20260506232948 63 201 0.9 5.2 0.00 0.00 0.00 72 1006.0
20260506232932 63 187 0.0 5.2 0.00 0.00 0.00 72 1006.0
20260506232657 63 224 0.0 5.2 0.00 0.00 0.00 72 1005.8
20260506232418 63 195 0.0 5.2 0.00 0.00 0.00 72 1006.2
20260506232130 63 196 0.0 5.2 0.00 0.00 0.00 72 1005.5
20260506232113 63 219 0.0 1.7 0.00 0.00 0.00 73 1005.8
20260506231751 63 203 0.0 1.7 0.00 0.00 0.00 72 1005.8
20260506231659 63 219 0.9 1.7 0.00 0.00 0.00 72 1005.9
20260506231651 63 200 0.0 1.7 0.00 0.00 0.00 72 1005.9
20260506231551 63 207 0.0 1.7 0.00 0.00 0.00 72 1005.9
20260506231447 63 196 0.0 1.7 0.00 0.00 0.00 72 1006.2
20260506231347 63 198 0.0 1.7 0.00 0.00 0.00 72 1006.0
20260506231247 63 203 0.9 1.7 0.00 0.00 0.00 72 1006.0
20260506231156 63 202 0.0 0.9 0.00 0.00 0.00 72 1005.9
20260506231146 63 211 0.0 0.9 0.00 0.00 0.00 72 1005.9
20260506231132 63 202 0.0 1.7 0.00 0.00 0.00 73 1005.9
20260506231127 63 206 0.0 2.6 0.00 0.00 0.00 72 1006.0
20260506231117 63 197 0.0 1.7 0.00 0.00 0.00 73 1005.9
20260506231102 63 198 0.0 1.7 0.00 0.00 0.00 73 1006.2
20260506231046 63 198 0.0 1.7 0.00 0.00 0.00 73 1005.8
20260506231030 63 200 0.0 2.6 0.00 0.00 0.00 72 1006.0
20260506231008 63 167 0.0 2.6 0.00 0.00 0.00 72 1005.8
20260506230731 63 199 0.0 2.6 0.00 0.00 0.00 72 1005.7
20260506230455 63 203 0.0 2.6 0.00 0.00 0.00 72 1006.2
20260506230227 63 206 0.0 2.6 0.00 0.00 0.00 72 1006.0
20260506230211 63 210 0.9 2.6 0.00 0.00 0.00 72 1006.2
20260506225947 63 209 0.0 2.6 0.00 0.00 0.00 72 1006.0
20260506225932 63 210 0.9 2.6 0.00 0.00 0.00 72 1005.8
20260506225915 63 224 0.0 1.7 0.00 0.00 0.00 72 1006.0
20260506225646 63 215 0.0 1.7 0.00 0.00 0.00 73 1005.9
20260506225545 62 207 0.0 1.7 0.00 0.00 0.00 72 1006.0
20260506225445 62 221 0.9 1.7 0.00 0.00 0.00 73 1006.3
20260506225345 62 200 0.0 1.7 0.00 0.00 0.00 73 1006.2
20260506225246 62 205 0.0 0.9 0.00 0.00 0.00 73 1006.2
20260506225228 62 205 0.0 0.9 0.00 0.00 0.00 73 1006.0
20260506225221 62 199 0.0 0.9 0.00 0.00 0.00 73 1006.0
20260506225206 62 209 0.0 0.0 0.00 0.00 0.00 74 1006.2
20260506224845 62 196 0.0 0.0 0.00 0.00 0.00 74 1006.0
20260506224746 62 196 0.0 0.0 0.00 0.00 0.00 74 1006.0
20260506224645 62 196 0.0 0.0 0.00 0.00 0.00 74 1006.0
20260506224546 62 196 0.0 0.0 0.00 0.00 0.00 74 1005.9
20260506224444 62 196 0.0 0.0 0.00 0.00 0.00 74 1005.9
20260506224340 62 196 0.0 0.0 0.00 0.00 0.00 73 1006.0
20260506224240 62 196 0.0 0.0 0.00 0.00 0.00 73 1005.7
20260506224222 62 197 0.0 0.0 0.00 0.00 0.00 73 1006.0
20260506224216 62 197 0.0 0.0 0.00 0.00 0.00 74 1006.0
20260506224200 62 198 0.0 0.0 0.00 0.00 0.00 74 1005.9
20260506223835 62 184 0.0 0.0 0.00 0.00 0.00 74 1005.8
20260506223734 62 182 0.0 0.0 0.00 0.00 0.00 75 1005.8
20260506223634 63 188 0.0 0.0 0.00 0.00 0.00 74 1005.9
20260506223612 64 201 0.0 0.9 0.00 0.00 0.00 69 1006.0
20260506223603 63 195 0.0 0.0 0.00 0.00 0.00 72 1005.8
20260506223547 63 195 0.0 0.0 0.00 0.00 0.00 71 1005.9
20260506223530 63 199 0.0 0.0 0.00 0.00 0.00 71 1006.0
20260506223306 63 200 0.0 0.0 0.00 0.00 0.00 71 1005.8
20260506223249 63 200 0.0 0.0 0.00 0.00 0.00 71 1005.8
20260506223242 63 201 0.0 0.0 0.00 0.00 0.00 71 1005.9
20260506223228 63 204 0.0 0.0 0.00 0.00 0.00 71 1005.8
20260506223213 63 203 0.0 0.0 0.00 0.00 0.00 71 1005.7
20260506223157 63 186 0.0 0.0 0.00 0.00 0.00 71 1005.8
20260506222921 63 186 0.0 0.9 0.00 0.00 0.00 71 1005.7
20260506222915 63 186 0.0 0.9 0.00 0.00 0.00 71 1005.8
20260506222859 63 189 0.0 0.9 0.00 0.00 0.00 71 1005.9
20260506222844 64 192 0.0 0.9 0.00 0.00 0.00 71 1005.7
20260506222827 64 196 0.0 0.9 0.00 0.00 0.00 70 1005.9
20260506222034 64 201 0.0 0.9 0.00 0.00 0.00 69 1005.7
20260506221935 64 206 0.0 0.9 0.00 0.00 0.00 69 1005.9
20260506221834 64 209 0.0 0.9 0.00 0.00 0.00 69 1005.9
20260506221733 64 208 0.0 0.9 0.00 0.00 0.00 69 1005.7
20260506221716 64 199 0.0 0.9 0.00 0.00 0.00 69 1005.7
20260506221710 64 198 0.0 0.9 0.00 0.00 0.00 69 1005.9
20260506221654 64 198 0.0 0.9 0.00 0.00 0.00 69 1005.8
20260506221334 64 199 0.0 0.9 0.00 0.00 0.00 68 1005.7
20260506221234 64 199 0.0 0.9 0.00 0.00 0.00 68 1005.9
20260506221213 64 200 0.0 0.9 0.00 0.00 0.00 68 1005.9
20260506221205 64 200 0.0 0.9 0.00 0.00 0.00 69 1005.8
20260506221148 64 200 0.0 0.0 0.00 0.00 0.00 69 1005.9
20260506221134 64 198 0.0 0.0 0.00 0.00 0.00 69 1005.8
20260506221120 64 187 0.0 0.0 0.00 0.00 0.00 69 1005.9
20260506220844 64 188 0.0 0.9 0.00 0.00 0.00 69 1006.0
20260506220533 64 188 0.0 0.9 0.00 0.00 0.00 69 1005.6
20260506220518 64 186 0.0 0.9 0.00 0.00 0.00 68 1005.7
20260506220508 64 189 0.0 0.9 0.00 0.00 0.00 69 1005.7
20260506220452 64 190 0.0 0.9 0.00 0.00 0.00 69 1005.6
20260506220437 64 186 0.0 0.9 0.00 0.00 0.00 68 1005.7
20260506220207 64 186 0.0 0.9 0.00 0.00 0.00 68 1005.8
20260506220152 64 186 0.0 0.9 0.00 0.00 0.00 68 1005.7
20260506220136 64 187 0.0 0.9 0.00 0.00 0.00 68 1005.7
20260506215900 64 189 0.0 0.0 0.00 0.00 0.00 68 1005.9
20260506215844 64 189 0.0 0.0 0.00 0.00 0.00 68 1005.8
20260506215506 64 187 0.0 0.0 0.00 0.00 0.00 69 1005.8
20260506215436 64 190 0.0 0.0 0.00 0.00 0.00 69 1005.9
20260506215428 64 190 0.0 0.0 0.00 0.00 0.00 69 1005.7
20260506215413 64 191 0.0 0.0 0.00 0.00 0.00 69 1005.8
20260506215356 64 191 0.0 0.0 0.00 0.00 0.00 69 1005.9
20260506215105 65 190 0.0 0.0 0.00 0.00 0.00 68 1006.0
20260506215006 65 188 0.0 0.9 0.00 0.00 0.00 68 1005.8
20260506214904 65 186 0.0 0.9 0.00 0.00 0.00 68 1005.9
20260506214805 65 186 0.0 0.9 0.00 0.00 0.00 67 1005.8
20260506214705 65 178 0.0 0.9 0.00 0.00 0.00 67 1005.9
20260506214638 65 191 0.0 0.9 0.00 0.00 0.00 67 1005.9
20260506214605 65 221 0.0 0.9 0.00 0.00 0.00 67 1005.9
20260506214505 65 196 0.0 0.9 0.00 0.00 0.00 67 1005.9
20260506214443 65 197 0.0 0.9 0.00 0.00 0.00 67 1006.0
20260506214427 65 194 0.0 0.9 0.00 0.00 0.00 67 1005.8
20260506214410 65 194 0.0 0.9 0.00 0.00 0.00 67 1005.7
20260506214355 65 194 0.0 0.9 0.00 0.00 0.00 66 1005.7
20260506214125 65 188 0.0 0.0 0.00 0.00 0.00 66 1005.8
20260506213804 65 188 0.0 0.0 0.00 0.00 0.00 66 1005.8
20260506213704 65 188 0.0 0.0 0.00 0.00 0.00 66 1005.6
20260506213637 66 188 0.0 0.0 0.00 0.00 0.00 66 1005.6
20260506213605 66 188 0.0 0.0 0.00 0.00 0.00 66 1005.8
20260506213541 66 186 0.0 0.0 0.00 0.00 0.00 66 1005.7
20260506213524 66 186 0.0 0.0 0.00 0.00 0.00 66 1005.7
20260506213136 66 186 0.0 0.0 0.00 0.00 0.00 66 1006.0
20260506213104 66 186 0.0 0.0 0.00 0.00 0.00 66 1005.8
20260506213005 66 186 0.0 0.0 0.00 0.00 0.00 66 1005.8
20260506212903 66 189 0.0 0.0 0.00 0.00 0.00 66 1005.9
20260506212803 66 184 0.0 0.0 0.00 0.00 0.00 66 1005.9
20260506212717 66 180 0.0 0.0 0.00 0.00 0.00 66 1005.9
20260506212703 66 181 0.0 0.0 0.00 0.00 0.00 66 1005.9
20260506212654 66 181 0.0 0.0 0.00 0.00 0.00 66 1005.8
20260506212637 66 179 0.0 0.0 0.00 0.00 0.00 66 1005.9
20260506212620 66 182 0.0 0.0 0.00 0.00 0.00 66 1005.7
20260506212605 66 184 0.0 0.0 0.00 0.00 0.00 65 1005.8
20260506212328 66 183 0.0 0.9 0.00 0.00 0.00 65 1005.8
20260506212318 66 163 0.0 0.9 0.00 0.00 0.00 65 1005.7
20260506212305 66 185 0.0 0.9 0.00 0.00 0.00 65 1005.9
20260506211817 66 183 0.0 0.9 0.00 0.00 0.00 65 1005.7
20260506211750 66 183 0.0 0.9 0.00 0.00 0.00 65 1005.8
20260506211739 67 177 0.0 2.6 0.00 0.00 0.00 65 1005.8
20260506211515 67 170 0.0 2.6 0.00 0.00 0.00 65 1005.7
20260506211500 67 181 0.0 2.6 0.00 0.00 0.00 65 1005.9
20260506211443 67 182 0.0 2.6 0.00 0.00 0.00 65 1006.0
20260506211426 67 191 0.0 2.6 0.00 0.00 0.00 65 1005.9
20260506211413 67 189 0.0 2.6 0.00 0.00 0.00 65 1005.9
20260506211143 67 183 0.0 2.6 0.00 0.00 0.00 65 1005.7
20260506211127 67 180 0.0 3.5 0.00 0.00 0.00 65 1005.7
20260506210852 67 165 1.7 3.5 0.00 0.00 0.00 64 1005.9
20260506210625 67 187 0.0 3.5 0.00 0.00 0.00 64 1005.7
20260506210609 67 210 1.7 3.5 0.00 0.00 0.00 64 1005.9
20260506210247 67 199 1.7 3.5 0.00 0.00 0.00 64 1005.6
20260506210149 67 210 1.7 3.5 0.00 0.00 0.00 64 1005.6
20260506210135 67 203 0.0 3.5 0.00 0.00 0.00 64 1005.6
20260506210125 67 198 0.0 3.5 0.00 0.00 0.00 64 1006.0
20260506210108 67 211 2.6 3.5 0.00 0.00 0.00 64 1005.7
20260506205748 67 196 1.7 2.6 0.00 0.00 0.00 65 1005.8
20260506205648 67 196 0.0 1.7 0.00 0.00 0.00 65 1005.8
20260506205633 67 204 0.0 1.7 0.00 0.00 0.00 65 1005.8
20260506205547 67 203 0.0 1.7 0.00 0.00 0.00 65 1005.6
20260506205533 66 188 0.0 0.9 0.00 0.00 0.00 65 1005.6
20260506205523 66 203 0.0 1.7 0.00 0.00 0.00 65 1006.0
20260506205508 66 192 0.9 1.7 0.00 0.00 0.00 65 1005.7
20260506205451 66 206 0.0 0.9 0.00 0.00 0.00 65 1005.7
20260506205436 66 180 0.0 0.9 0.00 0.00 0.00 65 1005.7
20260506205206 66 184 0.0 0.9 0.00 0.00 0.00 65 1005.6
20260506204846 66 190 0.0 0.9 0.00 0.00 0.00 65 1005.8
20260506204745 66 186 0.0 0.9 0.00 0.00 0.00 65 1005.5
20260506204630 66 185 0.0 0.9 0.00 0.00 0.00 65 1005.6
20260506204545 66 185 0.0 0.9 0.00 0.00 0.00 65 1005.6
20260506204445 66 184 0.0 0.9 0.00 0.00 0.00 65 1005.6
20260506204344 66 194 0.0 0.9 0.00 0.00 0.00 65 1005.8
20260506204318 66 185 0.0 0.9 0.00 0.00 0.00 65 1005.8
20260506204247 66 195 0.0 0.9 0.00 0.00 0.00 65 1005.6
20260506204237 66 178 0.0 0.9 0.00 0.00 0.00 65 1005.6
20260506204221 66 180 0.0 0.9 0.00 0.00 0.00 65 1005.7
20260506203642 66 160 0.0 0.9 0.00 0.00 0.00 65 1005.7
20260506203625 66 165 0.0 0.9 0.00 0.00 0.00 65 1005.6
20260506203539 66 182 0.0 0.9 0.00 0.00 0.00 65 1005.6
20260506203437 66 176 0.0 0.9 0.00 0.00 0.00 65 1005.5
20260506203335 66 162 0.0 0.9 0.00 0.00 0.00 65 1005.6
20260506203235 66 169 0.0 0.9 0.00 0.00 0.00 65 1005.5
20260506203136 66 118 0.0 0.9 0.00 0.00 0.00 65 1005.6
20260506203120 66 118 0.0 0.9 0.00 0.00 0.00 65 1005.5
20260506203036 66 172 0.0 0.9 0.00 0.00 0.00 65 1005.5
20260506202935 67 173 0.0 0.9 0.00 0.00 0.00 65 1005.6
20260506202922 67 168 0.0 1.7 0.00 0.00 0.00 64 1005.5
20260506202912 67 170 0.0 1.7 0.00 0.00 0.00 65 1005.5
20260506202856 67 175 0.0 1.7 0.00 0.00 0.00 64 1005.4
20260506202839 67 166 0.0 1.7 0.00 0.00 0.00 64 1005.3
20260506202613 67 170 0.0 1.7 0.00 0.00 0.00 64 1005.5
20260506202557 67 174 0.0 1.7 0.00 0.00 0.00 64 1005.4
20260506202235 67 164 0.0 1.7 0.00 0.00 0.00 64 1005.6
20260506202137 67 138 0.9 1.7 0.00 0.00 0.00 64 1005.6
20260506202119 67 156 0.0 1.7 0.00 0.00 0.00 64 1005.6
20260506202036 67 195 0.0 1.7 0.00 0.00 0.00 64 1005.6
20260506202010 67 166 0.0 1.7 0.00 0.00 0.00 64 1005.4
20260506201955 67 147 0.0 0.9 0.00 0.00 0.00 64 1005.5
20260506201634 67 172 0.0 0.9 0.00 0.00 0.00 64 1005.7
20260506201618 67 172 0.0 0.9 0.00 0.00 0.00 64 1005.6
20260506201535 67 169 0.0 0.9 0.00 0.00 0.00 64 1005.6
20260506201433 67 173 0.0 0.9 0.00 0.00 0.00 64 1005.7
20260506201333 67 168 0.0 1.7 0.00 0.00 0.00 64 1005.3
20260506201233 67 171 0.0 1.7 0.00 0.00 0.00 64 1005.4
20260506201133 67 175 0.0 3.5 0.00 0.00 0.00 64 1005.5
20260506201115 67 182 0.0 3.5 0.00 0.00 0.00 64 1005.5
20260506201029 67 165 0.0 3.5 0.00 0.00 0.00 64 1005.4
20260506200929 67 169 0.0 3.5 0.00 0.00 0.00 63 1005.3
20260506200829 67 178 0.0 3.5 0.00 0.00 0.00 63 1005.5
20260506200802 67 179 0.0 3.5 0.00 0.00 0.00 63 1005.5
20260506200735 67 184 0.0 3.5 0.00 0.00 0.00 63 1005.6
20260506200725 68 168 0.0 3.5 0.00 0.00 0.00 63 1005.4
20260506200708 68 171 0.0 3.5 0.00 0.00 0.00 63 1005.4
20260506200434 68 190 0.0 3.5 0.00 0.00 0.00 63 1005.4
20260506200417 68 206 1.7 3.5 0.00 0.00 0.00 63 1005.4
20260506200404 68 192 0.0 3.5 0.00 0.00 0.00 63 1005.4
20260506195906 68 192 0.0 5.2 0.00 0.00 0.00 63 1005.5
20260506195851 68 206 0.0 5.2 0.00 0.00 0.00 62 1005.4
20260506195612 68 196 0.0 5.2 0.00 0.00 0.00 62 1005.2
20260506195527 68 199 0.0 6.1 0.00 0.00 0.00 62 1005.5
20260506195427 68 201 0.0 6.1 0.00 0.00 0.00 62 1005.5
20260506195328 68 217 2.6 6.1 0.00 0.00 0.00 62 1005.4
20260506195215 68 203 1.7 6.1 0.00 0.00 0.00 62 1005.5
20260506195115 68 212 1.7 6.1 0.00 0.00 0.00 62 1005.5
20260506195015 68 218 4.3 6.1 0.00 0.00 0.00 62 1005.5
20260506194913 68 192 0.0 6.1 0.00 0.00 0.00 62 1005.4
20260506194810 68 190 0.0 6.1 0.00 0.00 0.00 62 1005.4
20260506194711 68 178 0.9 6.1 0.00 0.00 0.00 62 1005.4
20260506194610 68 237 2.6 6.1 0.00 0.00 0.00 62 1005.4
20260506194510 68 234 0.9 7.0 0.00 0.00 0.00 62 1005.3
20260506194454 68 220 1.7 7.0 0.00 0.00 0.00 62 1005.5
20260506194438 69 225 1.7 7.0 0.00 0.00 0.00 61 1005.6
20260506194422 69 220 1.7 7.0 0.00 0.00 0.00 61 1005.5
20260506194357 68 186 0.0 7.0 0.00 0.00 0.00 61 1005.6
20260506194117 68 235 1.7 7.0 0.00 0.00 0.00 61 1005.5
20260506193839 68 200 0.0 7.0 0.00 0.00 0.00 61 1005.4
20260506193611 68 233 4.3 7.0 0.00 0.00 0.00 61 1005.4
20260506193511 68 191 0.0 7.0 0.00 0.00 0.00 61 1005.3
20260506193409 69 186 0.0 7.0 0.00 0.00 0.00 61 1005.3
20260506193309 69 224 0.9 7.0 0.00 0.00 0.00 61 1005.7
20260506193209 69 237 0.0 8.7 0.00 0.00 0.00 61 1005.5
20260506193105 69 250 3.5 8.7 0.00 0.00 0.00 61 1005.4
20260506193006 69 223 1.7 8.7 0.00 0.00 0.00 61 1005.4
20260506192906 69 203 0.0 8.7 0.00 0.00 0.00 61 1005.5
20260506192849 69 200 0.0 8.7 0.00 0.00 0.00 60 1005.5
20260506192833 69 227 3.5 8.7 0.00 0.00 0.00 60 1005.5
20260506192606 69 200 0.9 8.7 0.00 0.00 0.00 61 1005.3
20260506192505 69 190 0.9 8.7 0.00 0.00 0.00 61 1005.4
20260506192408 69 205 3.5 8.7 0.00 0.00 0.00 61 1005.4
20260506192352 69 184 0.0 8.7 0.00 0.00 0.00 60 1005.3
20260506192336 69 207 0.9 7.8 0.00 0.00 0.00 61 1005.4
20260506192106 69 200 0.9 7.8 0.00 0.00 0.00 61 1005.4
20260506192006 69 211 0.9 7.8 0.00 0.00 0.00 60 1005.4
20260506191904 69 203 4.3 7.8 0.00 0.00 0.00 60 1005.3
20260506191805 69 198 0.9 7.8 0.00 0.00 0.00 60 1005.3
20260506191704 69 199 0.9 7.8 0.00 0.00 0.00 60 1005.4
20260506191605 69 203 2.6 7.8 0.00 0.00 0.00 60 1005.4
20260506191504 69 221 3.5 7.0 0.00 0.00 0.00 60 1005.4
20260506191404 69 194 1.7 7.0 0.00 0.00 0.00 60 1005.5
20260506191342 69 215 3.5 7.0 0.00 0.00 0.00 60 1005.6
20260506191327 69 230 4.3 7.0 0.00 0.00 0.00 60 1005.2
20260506191302 69 222 3.5 7.0 0.00 0.00 0.00 60 1005.4
20260506191247 69 213 2.6 7.0 0.00 0.00 0.00 60 1005.3
20260506190704 69 233 1.7 7.0 0.00 0.00 0.00 59 1005.3
20260506190617 69 250 2.6 7.0 0.00 0.00 0.00 59 1005.3
20260506190504 69 200 0.0 7.0 0.00 0.00 0.00 59 1005.2
20260506190404 69 216 3.5 7.0 0.00 0.00 0.00 59 1005.3
20260506190305 69 217 3.5 7.0 0.00 0.00 0.00 59 1005.4
20260506190205 69 207 4.3 7.0 0.00 0.00 0.00 59 1005.2
20260506190134 69 198 1.7 7.0 0.00 0.00 0.00 60 1005.2
20260506190118 69 200 1.7 7.0 0.00 0.00 0.00 60 1005.2
20260506185758 69 188 0.9 7.0 0.00 0.00 0.00 59 1005.4
20260506185657 69 222 4.3 7.0 0.00 0.00 0.00 59 1005.2
20260506185558 69 216 1.7 6.1 0.00 0.00 0.00 60 1005.2
20260506185521 69 234 1.7 6.1 0.00 0.00 0.00 59 1005.2
20260506185505 69 226 1.7 6.1 0.00 0.00 0.00 60 1005.1
20260506185450 69 214 1.7 6.1 0.00 0.00 0.00 60 1005.1
20260506185434 69 211 1.7 7.8 0.00 0.00 0.00 60 1005.4
20260506185411 69 214 1.7 7.8 0.00 0.00 0.00 60 1005.2
20260506184913 69 228 3.5 7.8 0.00 0.00 0.00 60 1005.0
20260506184856 69 206 0.0 7.8 0.00 0.00 0.00 60 1005.1
20260506184628 69 200 0.9 7.8 0.00 0.00 0.00 60 1005.3
20260506184612 69 223 2.6 7.8 0.00 0.00 0.00 60 1005.3
20260506184254 69 190 0.0 7.8 0.00 0.00 0.00 60 1005.3
20260506184152 69 208 2.6 7.0 0.00 0.00 0.00 60 1005.2
20260506184052 69 211 0.9 5.2 0.00 0.00 0.00 60 1005.2
20260506183952 70 192 0.0 5.2 0.00 0.00 0.00 60 1004.9
20260506183852 70 192 0.0 5.2 0.00 0.00 0.00 60 1005.2
20260506183752 70 185 0.0 5.2 0.00 0.00 0.00 60 1005.1
20260506183734 70 190 0.0 5.2 0.00 0.00 0.00 60 1004.9
20260506183712 70 201 0.0 5.2 0.00 0.00 0.00 60 1005.2
20260506183353 70 197 0.9 5.2 0.00 0.00 0.00 60 1005.2
20260506183253 70 231 2.6 5.2 0.00 0.00 0.00 60 1004.9
20260506183155 70 194 0.0 2.6 0.00 0.00 0.00 60 1005.0
20260506183131 70 205 1.7 2.6 0.00 0.00 0.00 60 1005.2
20260506183114 70 200 0.0 3.5 0.00 0.00 0.00 60 1005.2
20260506182753 70 214 2.6 6.1 0.00 0.00 0.00 60 1005.0
20260506182737 70 198 0.9 7.8 0.00 0.00 0.00 60 1005.2
20260506182713 70 222 0.0 7.8 0.00 0.00 0.00 60 1004.9
20260506182353 70 196 0.9 9.6 0.00 0.00 0.00 60 1005.1
20260506182253 70 210 1.7 9.6 0.00 0.00 0.00 60 1005.1
20260506182152 70 225 0.9 9.6 0.00 0.00 0.00 60 1004.9
20260506182053 70 211 2.6 9.6 0.00 0.00 0.00 60 1005.1
20260506181952 70 201 4.3 9.6 0.00 0.00 0.00 60 1004.9
20260506181854 70 212 1.7 9.6 0.00 0.00 0.00 60 1004.9
20260506181752 70 233 3.5 9.6 0.00 0.00 0.00 59 1004.9
20260506181734 70 179 0.9 9.6 0.00 0.00 0.00 60 1004.9
20260506181712 70 198 2.6 9.6 0.00 0.00 0.00 59 1004.9
20260506181352 71 201 0.9 9.6 0.00 0.00 0.00 59 1004.8
20260506181252 70 191 1.7 9.6 0.00 0.00 0.00 59 1005.0
20260506181151 70 210 3.5 9.6 0.00 0.00 0.00 59 1004.6
20260506181141 71 222 1.7 5.2 0.00 0.00 0.00 59 1004.6
20260506181123 70 202 0.9 9.6 0.00 0.00 0.00 59 1004.9
20260506181108 70 198 1.7 9.6 0.00 0.00 0.00 59 1004.8
20260506181052 71 189 2.6 9.6 0.00 0.00 0.00 59 1005.0
20260506181037 71 175 0.0 9.6 0.00 0.00 0.00 59 1004.9
20260506180759 71 222 1.7 5.2 0.00 0.00 0.00 59 1004.6
20260506180523 71 190 0.0 5.2 0.00 0.00 0.00 59 1004.8
20260506180508 71 191 0.9 5.2 0.00 0.00 0.00 59 1005.0
20260506180148 71 194 1.7 5.2 0.00 0.00 0.00 59 1004.8
20260506180122 71 202 0.0 5.2 0.00 0.00 0.00 59 1004.8
20260506180107 71 190 1.7 5.2 0.00 0.00 0.00 58 1004.6
20260506175747 71 189 0.9 5.2 0.00 0.00 0.00 58 1004.9
20260506175730 71 212 1.7 5.2 0.00 0.00 0.00 58 1004.9
20260506175708 71 202 0.0 3.5 0.00 0.00 0.00 58 1004.9
20260506175425 71 198 1.7 3.5 0.00 0.00 0.00 57 1004.8
20260506175409 71 191 0.0 3.5 0.00 0.00 0.00 57 1005.1